Time,TemperatureF,DewpointF,PressureIn,WindDirection,WindDirectionDegrees,WindSpeedMPH,WindSpeedGustMPH,Humidity,HourlyPrecipIn,Conditions,Clouds,dailyrainin,SoftwareType,DateUTC
2013-01-23 00:00:00,10.7,0.2,30.40,West,259,1.0,3.0,62,0.00,,,0.00,Wunderground v.1.15,2013-01-23 06:00:00,
2013-01-23 00:01:00,10.7,0.2,30.40,West,259,1.0,3.0,62,0.00,,,0.00,Wunderground v.1.15,2013-01-23 06:01:00,
2013-01-23 00:05:00,10.8,0.7,30.40,West,259,1.0,3.0,63,0.00,,,0.00,Wunderground v.1.15,2013-01-23 06:05:00,
2013-01-23 00:07:00,10.8,0.7,30.40,West,259,1.0,3.0,63,0.00,,,0.00,Wunderground v.1.15,2013-01-23 06:07:00,
2013-01-23 00:09:00,10.8,0.7,30.40,West,259,2.0,3.0,63,0.00,,,0.00,Wunderground v.1.15,2013-01-23 06:09:00,
2013-01-23 00:10:00,10.8,0.7,30.40,WSW,258,2.0,4.0,63,0.00,,,0.00,Wunderground v.1.15,2013-01-23 06:10:00,
2013-01-23 00:13:00,10.8,0.7,30.40,WSW,258,2.0,4.0,63,0.00,,,0.00,Wunderground v.1.15,2013-01-23 06:13:00,
2013-01-23 00:14:00,10.8,0.7,30.40,WSW,258,2.0,4.0,63,0.00,,,0.00,Wunderground v.1.15,2013-01-23 06:14:00,
2013-01-23 00:15:00,10.8,0.7,30.40,WSW,258,2.0,4.0,63,0.00,,,0.00,Wunderground v.1.15,2013-01-23 06:15:00,
2013-01-23 00:19:00,10.8,0.7,30.40,West,277,2.0,5.0,63,0.00,,,0.00,Wunderground v.1.15,2013-01-23 06:19:00,
2013-01-23 00:20:00,10.8,0.7,30.39,West,277,2.0,4.0,63,0.00,,,0.00,Wunderground v.1.15,2013-01-23 06:20:00,
2013-01-23 00:21:00,10.8,0.7,30.39,West,277,2.0,4.0,63,0.00,,,0.00,Wunderground v.1.15,2013-01-23 06:21:00,
2013-01-23 00:22:00,10.8,0.7,30.39,West,277,2.0,4.0,63,0.00,,,0.00,Wunderground v.1.15,2013-01-23 06:22:00,
2013-01-23 00:26:00,10.8,0.7,30.39,West,275,3.0,4.0,63,0.00,,,0.00,Wunderground v.1.15,2013-01-23 06:26:00,
2013-01-23 00:27:00,10.8,0.7,30.39,West,271,3.0,4.0,63,0.00,,,0.00,Wunderground v.1.15,2013-01-23 06:27:00,
2013-01-23 00:28:00,10.9,0.8,30.39,West,271,3.0,4.0,63,0.00,,,0.00,Wunderground v.1.15,2013-01-23 06:28:00,
2013-01-23 00:29:00,10.9,0.8,30.39,West,271,3.0,4.0,63,0.00,,,0.00,Wunderground v.1.15,2013-01-23 06:29:00,
2013-01-23 00:32:00,10.9,0.8,30.39,West,271,3.0,3.0,63,0.00,,,0.00,Wunderground v.1.15,2013-01-23 06:32:00,
2013-01-23 00:33:00,10.9,0.8,30.38,West,271,2.0,3.0,63,0.00,,,0.00,Wunderground v.1.15,2013-01-23 06:33:00,
2013-01-23 00:36:00,10.9,0.8,30.38,West,270,3.0,3.0,63,0.00,,,0.00,Wunderground v.1.15,2013-01-23 06:36:00,
2013-01-23 00:38:00,10.9,0.8,30.38,West,269,2.0,3.0,63,0.00,,,0.00,Wunderground v.1.15,2013-01-23 06:38:00,
2013-01-23 00:40:00,10.9,0.8,30.38,West,269,2.0,2.0,63,0.00,,,0.00,Wunderground v.1.15,2013-01-23 06:40:00,
2013-01-23 00:44:00,10.9,1.1,30.39,West,269,3.0,3.0,64,0.00,,,0.00,Wunderground v.1.15,2013-01-23 06:44:00,
2013-01-23 00:45:00,10.9,0.8,30.38,West,269,3.0,3.0,63,0.00,,,0.00,Wunderground v.1.15,2013-01-23 06:45:00,
2013-01-23 00:46:00,10.9,0.8,30.39,West,269,3.0,3.0,63,0.00,,,0.00,Wunderground v.1.15,2013-01-23 06:46:00,
2013-01-23 00:47:00,11.0,0.9,30.39,West,269,3.0,3.0,63,0.00,,,0.00,Wunderground v.1.15,2013-01-23 06:47:00,
2013-01-23 00:52:00,11.0,0.9,30.38,West,267,3.0,3.0,63,0.00,,,0.00,Wunderground v.1.15,2013-01-23 06:52:00,
2013-01-23 00:53:00,11.0,0.9,30.38,West,267,3.0,3.0,63,0.00,,,0.00,Wunderground v.1.15,2013-01-23 06:53:00,
2013-01-23 00:56:00,11.0,0.9,30.38,West,267,3.0,4.0,63,0.00,,,0.00,Wunderground v.1.15,2013-01-23 06:56:00,
2013-01-23 00:58:00,11.0,1.2,30.38,West,267,3.0,4.0,64,0.00,,,0.00,Wunderground v.1.15,2013-01-23 06:58:00,
2013-01-23 00:59:00,11.0,1.2,30.38,West,267,2.0,4.0,64,0.00,,,0.00,Wunderground v.1.15,2013-01-23 06:59:00,
2013-01-23 01:00:00,11.0,1.2,30.38,West,267,2.0,3.0,64,0.00,,,0.00,Wunderground v.1.15,2013-01-23 07:00:00,
2013-01-23 01:03:00,11.0,1.2,30.37,WSW,244,2.0,5.0,64,0.00,,,0.00,Wunderground v.1.15,2013-01-23 07:03:00,
2013-01-23 01:05:00,11.0,1.2,30.37,WSW,243,3.0,5.0,64,0.00,,,0.00,Wunderground v.1.15,2013-01-23 07:05:00,
2013-01-23 01:10:00,11.0,0.9,30.37,SW,231,3.0,3.0,63,0.00,,,0.00,Wunderground v.1.15,2013-01-23 07:10:00,
2013-01-23 01:12:00,11.1,0.9,30.37,SW,232,3.0,5.0,63,0.00,,,0.00,Wunderground v.1.15,2013-01-23 07:12:00,
2013-01-23 01:13:00,11.0,0.9,30.37,SW,234,3.0,5.0,63,0.00,,,0.00,Wunderground v.1.15,2013-01-23 07:13:00,
2013-01-23 01:19:00,11.1,1.3,30.37,SW,234,3.0,5.0,64,0.00,,,0.00,Wunderground v.1.15,2013-01-23 07:19:00,
2013-01-23 01:20:00,11.0,1.2,30.37,SW,232,3.0,5.0,64,0.00,,,0.00,Wunderground v.1.15,2013-01-23 07:20:00,
2013-01-23 01:21:00,11.1,0.9,30.37,SW,232,3.0,5.0,63,0.00,,,0.00,Wunderground v.1.15,2013-01-23 07:21:00,
2013-01-23 01:24:00,11.1,0.9,30.37,SW,231,2.0,5.0,63,0.00,,,0.00,Wunderground v.1.15,2013-01-23 07:24:00,
2013-01-23 01:25:00,11.1,0.9,30.37,SW,234,3.0,5.0,63,0.00,,,0.00,Wunderground v.1.15,2013-01-23 07:25:00,
2013-01-23 01:30:00,11.0,0.9,30.37,WSW,240,3.0,3.0,63,0.00,,,0.00,Wunderground v.1.15,2013-01-23 07:30:00,
2013-01-23 01:31:00,11.1,0.9,30.37,WSW,240,3.0,3.0,63,0.00,,,0.00,Wunderground v.1.15,2013-01-23 07:31:00,
2013-01-23 01:32:00,11.0,0.9,30.37,WSW,240,3.0,3.0,63,0.00,,,0.00,Wunderground v.1.15,2013-01-23 07:32:00,
2013-01-23 01:36:00,11.1,1.3,30.37,WSW,239,3.0,4.0,64,0.00,,,0.00,Wunderground v.1.15,2013-01-23 07:36:00,
2013-01-23 01:37:00,11.1,0.9,30.37,WSW,239,3.0,4.0,63,0.00,,,0.00,Wunderground v.1.15,2013-01-23 07:37:00,
2013-01-23 01:38:00,11.1,0.9,30.37,WSW,239,3.0,4.0,63,0.00,,,0.00,Wunderground v.1.15,2013-01-23 07:38:00,
2013-01-23 01:39:00,11.1,0.9,30.37,WSW,239,3.0,4.0,63,0.00,,,0.00,Wunderground v.1.15,2013-01-23 07:39:00,
2013-01-23 01:44:00,11.1,1.3,30.37,WSW,239,3.0,3.0,64,0.00,,,0.00,Wunderground v.1.15,2013-01-23 07:44:00,
2013-01-23 01:46:00,11.2,1.4,30.37,WSW,239,3.0,3.0,64,0.00,,,0.00,Wunderground v.1.15,2013-01-23 07:46:00,
2013-01-23 01:47:00,11.2,1.4,30.38,WSW,239,3.0,3.0,64,0.00,,,0.00,Wunderground v.1.15,2013-01-23 07:47:00,
2013-01-23 01:50:00,11.2,1.4,30.38,WSW,239,3.0,3.0,64,0.00,,,0.00,Wunderground v.1.15,2013-01-23 07:50:00,
2013-01-23 01:52:00,11.2,1.4,30.38,WSW,239,3.0,3.0,64,0.00,,,0.00,Wunderground v.1.15,2013-01-23 07:52:00,
2013-01-23 01:53:00,11.2,1.4,30.38,WSW,239,3.0,3.0,64,0.00,,,0.00,Wunderground v.1.15,2013-01-23 07:53:00,
2013-01-23 01:57:00,11.3,1.5,30.38,WSW,239,2.0,3.0,64,0.00,,,0.00,Wunderground v.1.15,2013-01-23 07:57:00,
2013-01-23 01:58:00,11.2,1.4,30.38,WSW,239,2.0,3.0,64,0.00,,,0.00,Wunderground v.1.15,2013-01-23 07:58:00,
2013-01-23 01:59:00,11.3,1.5,30.38,WSW,238,2.0,5.0,64,0.00,,,0.00,Wunderground v.1.15,2013-01-23 07:59:00,
2013-01-23 02:02:00,11.3,1.5,30.38,SW,235,3.0,3.0,64,0.00,,,0.00,Wunderground v.1.15,2013-01-23 08:02:00,
2013-01-23 02:04:00,11.3,1.5,30.38,SW,234,3.0,3.0,64,0.00,,,0.00,Wunderground v.1.15,2013-01-23 08:04:00,
2013-01-23 02:06:00,11.4,1.6,30.38,SW,234,3.0,3.0,64,0.00,,,0.00,Wunderground v.1.15,2013-01-23 08:06:00,
2013-01-23 02:07:00,11.3,1.5,30.38,SW,234,3.0,3.0,64,0.00,,,0.00,Wunderground v.1.15,2013-01-23 08:07:00,
2013-01-23 02:12:00,11.4,1.6,30.38,SW,235,3.0,3.0,64,0.00,,,0.00,Wunderground v.1.15,2013-01-23 08:12:00,
2013-01-23 02:14:00,11.4,1.6,30.38,SW,234,3.0,4.0,64,0.00,,,0.00,Wunderground v.1.15,2013-01-23 08:14:00,
2013-01-23 02:16:00,11.4,1.6,30.38,SW,234,3.0,4.0,64,0.00,,,0.00,Wunderground v.1.15,2013-01-23 08:16:00,
2013-01-23 02:19:00,11.4,1.6,30.38,SW,234,3.0,4.0,64,0.00,,,0.00,Wunderground v.1.15,2013-01-23 08:19:00,
2013-01-23 02:20:00,11.4,1.6,30.38,SW,234,3.0,3.0,64,0.00,,,0.00,Wunderground v.1.15,2013-01-23 08:20:00,
2013-01-23 02:21:00,11.4,1.6,30.38,SW,234,3.0,4.0,64,0.00,,,0.00,Wunderground v.1.15,2013-01-23 08:21:00,
2013-01-23 02:26:00,11.4,1.6,30.38,SW,218,3.0,4.0,64,0.00,,,0.00,Wunderground v.1.15,2013-01-23 08:26:00,
2013-01-23 02:27:00,11.4,1.6,30.38,SW,219,3.0,4.0,64,0.00,,,0.00,Wunderground v.1.15,2013-01-23 08:27:00,
2013-01-23 02:28:00,11.4,1.6,30.38,SW,219,3.0,4.0,64,0.00,,,0.00,Wunderground v.1.15,2013-01-23 08:28:00,
2013-01-23 02:30:00,11.4,1.9,30.38,SW,219,3.0,3.0,65,0.00,,,0.00,Wunderground v.1.15,2013-01-23 08:30:00,
2013-01-23 02:32:00,11.5,2.0,30.38,SW,219,3.0,3.0,65,0.00,,,0.00,Wunderground v.1.15,2013-01-23 08:32:00,
2013-01-23 02:33:00,11.4,1.9,30.38,SW,219,3.0,3.0,65,0.00,,,0.00,Wunderground v.1.15,2013-01-23 08:33:00,
2013-01-23 02:36:00,11.5,2.0,30.37,WSW,249,2.0,6.0,65,0.00,,,0.00,Wunderground v.1.15,2013-01-23 08:36:00,
2013-01-23 02:38:00,11.5,2.0,30.37,WSW,249,2.0,6.0,65,0.00,,,0.00,Wunderground v.1.15,2013-01-23 08:38:00,
2013-01-23 02:42:00,11.6,2.1,30.38,WSW,249,2.0,3.0,65,0.00,,,0.00,Wunderground v.1.15,2013-01-23 08:42:00,
2013-01-23 02:43:00,11.6,2.1,30.38,WSW,249,2.0,4.0,65,0.00,,,0.00,Wunderground v.1.15,2013-01-23 08:43:00,
2013-01-23 02:47:00,11.6,2.1,30.38,WSW,246,3.0,4.0,65,0.00,,,0.00,Wunderground v.1.15,2013-01-23 08:47:00,
2013-01-23 02:48:00,11.6,2.1,30.38,WSW,246,3.0,4.0,65,0.00,,,0.00,Wunderground v.1.15,2013-01-23 08:48:00,
2013-01-23 02:50:00,11.6,2.4,30.38,WSW,244,3.0,4.0,66,0.00,,,0.00,Wunderground v.1.15,2013-01-23 08:50:00,
2013-01-23 02:54:00,11.6,2.1,30.38,WSW,244,3.0,4.0,65,0.00,,,0.00,Wunderground v.1.15,2013-01-23 08:54:00,
2013-01-23 02:55:00,11.7,2.2,30.38,WSW,244,3.0,4.0,65,0.00,,,0.00,Wunderground v.1.15,2013-01-23 08:55:00,
2013-01-23 02:56:00,11.6,2.1,30.38,WSW,244,3.0,4.0,65,0.00,,,0.00,Wunderground v.1.15,2013-01-23 08:56:00,
2013-01-23 02:58:00,11.7,2.2,30.38,WSW,244,3.0,4.0,65,0.00,,,0.00,Wunderground v.1.15,2013-01-23 08:58:00,
2013-01-23 03:01:00,11.7,2.2,30.37,WSW,243,3.0,3.0,65,0.00,,,0.00,Wunderground v.1.15,2013-01-23 09:01:00,
2013-01-23 03:02:00,11.7,2.2,30.37,WSW,243,3.0,3.0,65,0.00,,,0.00,Wunderground v.1.15,2013-01-23 09:02:00,
2013-01-23 03:06:00,11.7,2.2,30.37,WSW,240,3.0,4.0,65,0.00,,,0.00,Wunderground v.1.15,2013-01-23 09:06:00,
2013-01-23 03:07:00,11.7,2.2,30.37,WSW,241,3.0,6.0,65,0.00,,,0.00,Wunderground v.1.15,2013-01-23 09:07:00,
2013-01-23 03:11:00,11.7,2.2,30.37,SW,220,3.0,5.0,65,0.00,,,0.00,Wunderground v.1.15,2013-01-23 09:11:00,
2013-01-23 03:12:00,11.7,2.2,30.37,SW,215,3.0,7.0,65,0.00,,,0.00,Wunderground v.1.15,2013-01-23 09:12:00,
2013-01-23 03:17:00,11.7,2.2,30.37,SW,217,3.0,7.0,65,0.00,,,0.00,Wunderground v.1.15,2013-01-23 09:17:00,
2013-01-23 03:19:00,11.7,2.2,30.36,SW,216,3.0,7.0,65,0.00,,,0.00,Wunderground v.1.15,2013-01-23 09:19:00,
2013-01-23 03:22:00,11.7,2.2,30.36,SW,217,3.0,4.0,65,0.00,,,0.00,Wunderground v.1.15,2013-01-23 09:22:00,
2013-01-23 03:25:00,11.7,2.2,30.36,SW,217,3.0,4.0,65,0.00,,,0.00,Wunderground v.1.15,2013-01-23 09:25:00,
2013-01-23 03:26:00,11.7,2.2,30.36,SW,217,3.0,4.0,65,0.00,,,0.00,Wunderground v.1.15,2013-01-23 09:26:00,
2013-01-23 03:29:00,11.8,2.6,30.36,SW,217,3.0,4.0,66,0.00,,,0.00,Wunderground v.1.15,2013-01-23 09:29:00,
2013-01-23 03:30:00,11.7,2.5,30.36,SW,217,3.0,3.0,66,0.00,,,0.00,Wunderground v.1.15,2013-01-23 09:30:00,
2013-01-23 03:33:00,11.8,2.6,30.36,SW,217,2.0,3.0,66,0.00,,,0.00,Wunderground v.1.15,2013-01-23 09:33:00,
2013-01-23 03:34:00,11.8,2.6,30.36,SW,217,2.0,3.0,66,0.00,,,0.00,Wunderground v.1.15,2013-01-23 09:34:00,
2013-01-23 03:38:00,11.8,2.6,30.36,SW,217,2.0,3.0,66,0.00,,,0.00,Wunderground v.1.15,2013-01-23 09:38:00,
2013-01-23 03:39:00,11.8,2.6,30.36,SW,217,1.0,3.0,66,0.00,,,0.00,Wunderground v.1.15,2013-01-23 09:39:00,
2013-01-23 03:42:00,11.8,2.6,30.36,SW,217,2.0,2.0,66,0.00,,,0.00,Wunderground v.1.15,2013-01-23 09:42:00,
2013-01-23 03:43:00,11.9,2.7,30.35,SW,217,2.0,2.0,66,0.00,,,0.00,Wunderground v.1.15,2013-01-23 09:43:00,
2013-01-23 03:47:00,11.9,2.7,30.36,SW,217,2.0,3.0,66,0.00,,,0.00,Wunderground v.1.15,2013-01-23 09:47:00,
2013-01-23 03:48:00,11.9,2.7,30.36,SW,218,2.0,3.0,66,0.00,,,0.00,Wunderground v.1.15,2013-01-23 09:48:00,
2013-01-23 03:49:00,11.9,2.7,30.36,SW,219,2.0,3.0,66,0.00,,,0.00,Wunderground v.1.15,2013-01-23 09:49:00,
2013-01-23 03:52:00,11.9,2.7,30.36,SW,219,2.0,4.0,66,0.00,,,0.00,Wunderground v.1.15,2013-01-23 09:52:00,
2013-01-23 03:53:00,11.9,2.7,30.35,SW,219,3.0,4.0,66,0.00,,,0.00,Wunderground v.1.15,2013-01-23 09:53:00,
2013-01-23 03:54:00,11.9,2.7,30.35,SW,219,3.0,4.0,66,0.00,,,0.00,Wunderground v.1.15,2013-01-23 09:54:00,
2013-01-23 03:58:00,11.9,2.7,30.35,SW,219,3.0,4.0,66,0.00,,,0.00,Wunderground v.1.15,2013-01-23 09:58:00,
2013-01-23 03:59:00,11.9,2.7,30.35,SW,219,3.0,4.0,66,0.00,,,0.00,Wunderground v.1.15,2013-01-23 09:59:00,
2013-01-23 04:02:00,12.0,2.8,30.35,SW,219,2.0,3.0,66,0.00,,,0.00,Wunderground v.1.15,2013-01-23 10:02:00,
2013-01-23 04:05:00,12.0,2.8,30.35,SW,219,2.0,4.0,66,0.00,,,0.00,Wunderground v.1.15,2013-01-23 10:05:00,
2013-01-23 04:06:00,12.0,2.8,30.35,SW,219,2.0,4.0,66,0.00,,,0.00,Wunderground v.1.15,2013-01-23 10:06:00,
2013-01-23 04:08:00,12.0,2.8,30.35,SW,220,2.0,4.0,66,0.00,,,0.00,Wunderground v.1.15,2013-01-23 10:08:00,
2013-01-23 04:10:00,12.0,3.1,30.35,SW,220,2.0,2.0,67,0.00,,,0.00,Wunderground v.1.15,2013-01-23 10:10:00,
2013-01-23 04:11:00,12.0,3.1,30.35,SW,219,2.0,2.0,67,0.00,,,0.00,Wunderground v.1.15,2013-01-23 10:11:00,
2013-01-23 04:17:00,12.0,3.1,30.35,SW,219,3.0,3.0,67,0.00,,,0.00,Wunderground v.1.15,2013-01-23 10:17:00,
2013-01-23 04:18:00,12.0,3.1,30.35,SW,219,3.0,3.0,67,0.00,,,0.00,Wunderground v.1.15,2013-01-23 10:18:00,
2013-01-23 04:21:00,12.0,2.8,30.35,SW,219,2.0,4.0,66,0.00,,,0.00,Wunderground v.1.15,2013-01-23 10:21:00,
2013-01-23 04:22:00,12.0,2.8,30.35,SW,219,3.0,4.0,66,0.00,,,0.00,Wunderground v.1.15,2013-01-23 10:22:00,
2013-01-23 04:26:00,12.1,3.2,30.34,SW,220,3.0,4.0,67,0.00,,,0.00,Wunderground v.1.15,2013-01-23 10:26:00,
2013-01-23 04:29:00,12.1,3.2,30.34,SW,221,3.0,4.0,67,0.00,,,0.00,Wunderground v.1.15,2013-01-23 10:29:00,
2013-01-23 04:30:00,12.1,3.2,30.34,SW,221,3.0,3.0,67,0.00,,,0.00,Wunderground v.1.15,2013-01-23 10:30:00,
2013-01-23 04:32:00,12.1,3.2,30.34,WSW,251,3.0,3.0,67,0.00,,,0.00,Wunderground v.1.15,2013-01-23 10:32:00,
2013-01-23 04:35:00,12.1,3.2,30.33,WSW,250,3.0,4.0,67,0.00,,,0.00,Wunderground v.1.15,2013-01-23 10:35:00,
2013-01-23 04:38:00,12.1,3.2,30.33,WSW,249,3.0,5.0,67,0.00,,,0.00,Wunderground v.1.15,2013-01-23 10:38:00,
2013-01-23 04:39:00,12.1,3.2,30.33,WSW,249,3.0,5.0,67,0.00,,,0.00,Wunderground v.1.15,2013-01-23 10:39:00,
2013-01-23 04:40:00,12.1,3.2,30.33,WSW,249,3.0,3.0,67,0.00,,,0.00,Wunderground v.1.15,2013-01-23 10:40:00,
2013-01-23 04:43:00,12.1,3.2,30.34,WSW,249,3.0,3.0,67,0.00,,,0.00,Wunderground v.1.15,2013-01-23 10:43:00,
2013-01-23 04:44:00,12.2,3.6,30.34,WSW,249,3.0,3.0,68,0.00,,,0.00,Wunderground v.1.15,2013-01-23 10:44:00,
2013-01-23 04:46:00,12.2,3.3,30.34,WSW,249,2.0,3.0,67,0.00,,,0.00,Wunderground v.1.15,2013-01-23 10:46:00,
2013-01-23 04:49:00,12.2,3.6,30.34,WSW,249,2.0,3.0,68,0.00,,,0.00,Wunderground v.1.15,2013-01-23 10:49:00,
2013-01-23 04:51:00,12.2,3.6,30.34,WSW,249,2.0,3.0,68,0.00,,,0.00,Wunderground v.1.15,2013-01-23 10:51:00,
2013-01-23 04:52:00,12.2,3.6,30.34,WSW,249,2.0,3.0,68,0.00,,,0.00,Wunderground v.1.15,2013-01-23 10:52:00,
2013-01-23 04:53:00,12.2,3.3,30.34,WSW,248,2.0,3.0,67,0.00,,,0.00,Wunderground v.1.15,2013-01-23 10:53:00,
2013-01-23 04:56:00,12.3,3.4,30.34,WSW,248,2.0,3.0,67,0.00,,,0.00,Wunderground v.1.15,2013-01-23 10:56:00,
2013-01-23 04:57:00,12.3,3.4,30.34,WSW,248,2.0,3.0,67,0.00,,,0.00,Wunderground v.1.15,2013-01-23 10:57:00,
2013-01-23 05:00:00,12.3,3.4,30.34,WSW,248,2.0,3.0,67,0.00,,,0.00,Wunderground v.1.15,2013-01-23 11:00:00,
2013-01-23 05:02:00,12.3,3.1,30.33,WSW,248,3.0,4.0,66,0.00,,,0.00,Wunderground v.1.15,2013-01-23 11:02:00,
2013-01-23 05:03:00,12.3,3.1,30.33,WSW,248,3.0,4.0,66,0.00,,,0.00,Wunderground v.1.15,2013-01-23 11:03:00,
2013-01-23 05:04:00,12.3,3.1,30.33,WSW,248,3.0,4.0,66,0.00,,,0.00,Wunderground v.1.15,2013-01-23 11:04:00,
2013-01-23 05:05:00,12.3,3.1,30.33,WSW,248,3.0,4.0,66,0.00,,,0.00,Wunderground v.1.15,2013-01-23 11:05:00,
2013-01-23 05:08:00,12.3,3.1,30.33,WSW,248,2.0,4.0,66,0.00,,,0.00,Wunderground v.1.15,2013-01-23 11:08:00,
2013-01-23 05:10:00,12.3,3.1,30.33,WSW,248,2.0,2.0,66,0.00,,,0.00,Wunderground v.1.15,2013-01-23 11:10:00,
2013-01-23 05:11:00,12.4,3.2,30.33,WSW,248,2.0,2.0,66,0.00,,,0.00,Wunderground v.1.15,2013-01-23 11:11:00,
2013-01-23 05:14:00,12.4,3.2,30.33,WSW,248,2.0,3.0,66,0.00,,,0.00,Wunderground v.1.15,2013-01-23 11:14:00,
2013-01-23 05:15:00,12.4,2.9,30.33,WSW,248,2.0,3.0,65,0.00,,,0.00,Wunderground v.1.15,2013-01-23 11:15:00,
2013-01-23 05:16:00,12.4,2.9,30.33,WSW,248,2.0,3.0,65,0.00,,,0.00,Wunderground v.1.15,2013-01-23 11:16:00,
2013-01-23 05:17:00,12.4,2.9,30.33,WSW,248,2.0,3.0,65,0.00,,,0.00,Wunderground v.1.15,2013-01-23 11:17:00,
2013-01-23 05:21:00,12.4,2.9,30.33,WSW,248,2.0,3.0,65,0.00,,,0.00,Wunderground v.1.15,2013-01-23 11:21:00,
2013-01-23 05:22:00,12.4,2.9,30.33,WSW,248,2.0,3.0,65,0.00,,,0.00,Wunderground v.1.15,2013-01-23 11:22:00,
2013-01-23 05:24:00,12.4,2.9,30.33,WSW,248,2.0,3.0,65,0.00,,,0.00,Wunderground v.1.15,2013-01-23 11:24:00,
2013-01-23 05:26:00,12.4,2.9,30.33,WSW,248,2.0,3.0,65,0.00,,,0.00,Wunderground v.1.15,2013-01-23 11:26:00,
2013-01-23 05:27:00,12.4,2.9,30.32,WSW,245,2.0,3.0,65,0.00,,,0.00,Wunderground v.1.15,2013-01-23 11:27:00,
2013-01-23 05:28:00,12.4,2.9,30.32,WSW,245,3.0,3.0,65,0.00,,,0.00,Wunderground v.1.15,2013-01-23 11:28:00,
2013-01-23 05:30:00,12.4,2.9,30.33,WSW,245,3.0,3.0,65,0.00,,,0.00,Wunderground v.1.15,2013-01-23 11:30:00,
2013-01-23 05:35:00,12.4,2.5,30.33,SW,221,3.0,6.0,64,0.00,,,0.00,Wunderground v.1.15,2013-01-23 11:35:00,
2013-01-23 05:37:00,12.4,2.9,30.33,SW,220,3.0,6.0,65,0.00,,,0.00,Wunderground v.1.15,2013-01-23 11:37:00,
2013-01-23 05:39:00,12.4,2.9,30.33,SW,218,3.0,6.0,65,0.00,,,0.00,Wunderground v.1.15,2013-01-23 11:39:00,
2013-01-23 05:44:00,12.4,2.9,30.34,SW,221,3.0,7.0,65,0.00,,,0.00,Wunderground v.1.15,2013-01-23 11:44:00,
2013-01-23 05:45:00,12.4,2.5,30.34,SW,223,4.0,7.0,64,0.00,,,0.00,Wunderground v.1.15,2013-01-23 11:45:00,
2013-01-23 05:49:00,12.5,2.6,30.34,SW,222,3.0,7.0,64,0.00,,,0.00,Wunderground v.1.15,2013-01-23 11:49:00,
2013-01-23 05:50:00,12.4,2.5,30.34,SW,221,3.0,7.0,64,0.00,,,0.00,Wunderground v.1.15,2013-01-23 11:50:00,
2013-01-23 05:54:00,12.5,2.6,30.33,SW,228,4.0,7.0,64,0.00,,,0.00,Wunderground v.1.15,2013-01-23 11:54:00,
2013-01-23 05:55:00,12.5,2.6,30.33,SW,227,3.0,7.0,64,0.00,,,0.00,Wunderground v.1.15,2013-01-23 11:55:00,
2013-01-23 06:00:00,12.5,2.3,30.33,SSW,211,4.0,4.0,63,0.00,,,0.00,Wunderground v.1.15,2013-01-23 12:00:00,
2013-01-23 06:01:00,12.5,2.3,30.33,SSW,212,4.0,4.0,63,0.00,,,0.00,Wunderground v.1.15,2013-01-23 12:01:00,
2013-01-23 06:03:00,12.5,2.3,30.33,SSW,211,4.0,4.0,63,0.00,,,0.00,Wunderground v.1.15,2013-01-23 12:03:00,
2013-01-23 06:05:00,12.5,2.3,30.33,SSW,212,4.0,4.0,63,0.00,,,0.00,Wunderground v.1.15,2013-01-23 12:05:00,
2013-01-23 06:06:00,12.5,2.3,30.33,SSW,212,4.0,4.0,63,0.00,,,0.00,Wunderground v.1.15,2013-01-23 12:06:00,
2013-01-23 06:09:00,12.5,2.3,30.32,SSW,210,3.0,4.0,63,0.00,,,0.00,Wunderground v.1.15,2013-01-23 12:09:00,
2013-01-23 06:10:00,12.5,2.3,30.32,SW,218,3.0,5.0,63,0.00,,,0.00,Wunderground v.1.15,2013-01-23 12:10:00,
2013-01-23 06:11:00,12.5,2.6,30.32,SW,217,3.0,5.0,64,0.00,,,0.00,Wunderground v.1.15,2013-01-23 12:11:00,
2013-01-23 06:13:00,12.5,2.6,30.32,SW,217,3.0,5.0,64,0.00,,,0.00,Wunderground v.1.15,2013-01-23 12:13:00,
2013-01-23 06:16:00,12.5,2.6,30.33,SW,217,3.0,5.0,64,0.00,,,0.00,Wunderground v.1.15,2013-01-23 12:16:00,
2013-01-23 06:18:00,12.6,2.7,30.33,SW,215,3.0,6.0,64,0.00,,,0.00,Wunderground v.1.15,2013-01-23 12:18:00,
2013-01-23 06:19:00,12.5,2.6,30.33,SW,215,3.0,6.0,64,0.00,,,0.00,Wunderground v.1.15,2013-01-23 12:19:00,
2013-01-23 06:24:00,12.6,3.4,30.33,SSW,213,3.0,5.0,66,0.00,,,0.00,Wunderground v.1.15,2013-01-23 12:24:00,
2013-01-23 06:26:00,12.5,3.6,30.34,SSW,213,3.0,5.0,67,0.00,,,0.00,Wunderground v.1.15,2013-01-23 12:26:00,
2013-01-23 06:28:00,12.5,3.6,30.33,SW,215,3.0,5.0,67,0.00,,,0.00,Wunderground v.1.15,2013-01-23 12:28:00,
2013-01-23 06:30:00,12.5,3.6,30.33,SW,214,3.0,3.0,67,0.00,,,0.00,Wunderground v.1.15,2013-01-23 12:30:00,
2013-01-23 06:31:00,12.5,3.6,30.33,SW,214,3.0,4.0,67,0.00,,,0.00,Wunderground v.1.15,2013-01-23 12:31:00,
2013-01-23 06:33:00,12.5,3.9,30.34,SW,214,3.0,4.0,68,0.00,,,0.00,Wunderground v.1.15,2013-01-23 12:33:00,
2013-01-23 06:35:00,12.4,4.2,30.33,SW,218,4.0,4.0,69,0.00,,,0.00,Wunderground v.1.15,2013-01-23 12:35:00,
2013-01-23 06:37:00,12.4,4.5,30.33,SW,218,3.0,4.0,70,0.00,,,0.00,Wunderground v.1.15,2013-01-23 12:37:00,
2013-01-23 06:39:00,12.3,4.7,30.33,SW,218,3.0,4.0,71,0.00,,,0.00,Wunderground v.1.15,2013-01-23 12:39:00,
2013-01-23 06:40:00,12.3,4.7,30.33,SW,218,3.0,3.0,71,0.00,,,0.00,Wunderground v.1.15,2013-01-23 12:40:00,
2013-01-23 06:45:00,12.2,4.9,30.33,SW,218,2.0,3.0,72,0.00,,,0.00,Wunderground v.1.15,2013-01-23 12:45:00,
2013-01-23 06:49:00,12.2,5.2,30.32,SW,218,2.0,3.0,73,0.00,,,0.00,Wunderground v.1.15,2013-01-23 12:49:00,
2013-01-23 06:50:00,12.1,5.4,30.32,SW,218,2.0,2.0,74,0.00,,,0.00,Wunderground v.1.15,2013-01-23 12:50:00,
2013-01-23 06:51:00,12.1,5.4,30.32,SW,218,2.0,2.0,74,0.00,,,0.00,Wunderground v.1.15,2013-01-23 12:51:00,
2013-01-23 06:55:00,12.0,5.6,30.32,SW,218,2.0,3.0,75,0.00,,,0.00,Wunderground v.1.15,2013-01-23 12:55:00,
2013-01-23 06:56:00,12.0,5.6,30.32,SW,218,2.0,3.0,75,0.00,,,0.00,Wunderground v.1.15,2013-01-23 12:56:00,
2013-01-23 06:59:00,11.9,5.5,30.32,SW,218,2.0,4.0,75,0.00,,,0.00,Wunderground v.1.15,2013-01-23 12:59:00,
2013-01-23 07:03:00,11.8,5.7,30.32,SW,218,3.0,3.0,76,0.00,,,0.00,Wunderground v.1.15,2013-01-23 13:03:00,
2013-01-23 07:07:00,11.7,6.2,30.32,SW,218,3.0,4.0,78,0.00,,,0.00,Wunderground v.1.15,2013-01-23 13:07:00,
2013-01-23 07:08:00,11.8,6.3,30.32,SW,218,3.0,4.0,78,0.00,,,0.00,Wunderground v.1.15,2013-01-23 13:08:00,
2013-01-23 07:09:00,11.7,6.2,30.32,SW,218,2.0,4.0,78,0.00,,,0.00,Wunderground v.1.15,2013-01-23 13:09:00,
2013-01-23 07:11:00,11.7,6.4,30.32,SW,218,2.0,2.0,79,0.00,,,0.00,Wunderground v.1.15,2013-01-23 13:11:00,
2013-01-23 07:12:00,11.7,6.4,30.33,SW,218,2.0,2.0,79,0.00,,,0.00,Wunderground v.1.15,2013-01-23 13:12:00,
2013-01-23 07:16:00,11.6,6.3,30.32,SW,218,1.0,3.0,79,0.00,,,0.00,Wunderground v.1.15,2013-01-23 13:16:00,
2013-01-23 07:17:00,11.6,6.3,30.32,SW,218,1.0,3.0,79,0.00,,,0.00,Wunderground v.1.15,2013-01-23 13:17:00,
2013-01-23 07:18:00,11.6,6.6,30.32,SW,218,1.0,3.0,80,0.00,,,0.00,Wunderground v.1.15,2013-01-23 13:18:00,
2013-01-23 07:19:00,11.6,6.6,30.32,SW,218,2.0,3.0,80,0.00,,,0.00,Wunderground v.1.15,2013-01-23 13:19:00,
2013-01-23 07:23:00,11.6,6.6,30.31,SW,218,2.0,3.0,80,0.00,,,0.00,Wunderground v.1.15,2013-01-23 13:23:00,
2013-01-23 07:24:00,11.5,6.5,30.31,SW,218,2.0,3.0,80,0.00,,,0.00,Wunderground v.1.15,2013-01-23 13:24:00,
2013-01-23 07:27:00,11.5,6.5,30.32,SW,218,2.0,3.0,80,0.00,,,0.00,Wunderground v.1.15,2013-01-23 13:27:00,
2013-01-23 07:28:00,11.5,6.5,30.32,SW,218,2.0,3.0,80,0.00,,,0.00,Wunderground v.1.15,2013-01-23 13:28:00,
2013-01-23 07:29:00,11.5,6.5,30.32,SW,218,2.0,3.0,80,0.00,,,0.00,Wunderground v.1.15,2013-01-23 13:29:00,
2013-01-23 07:31:00,11.5,6.5,30.32,SW,218,2.0,2.0,80,0.00,,,0.00,Wunderground v.1.15,2013-01-23 13:31:00,
2013-01-23 07:34:00,11.4,6.7,30.31,SW,218,2.0,3.0,81,0.00,,,0.00,Wunderground v.1.15,2013-01-23 13:34:00,
2013-01-23 07:35:00,11.4,6.7,30.31,SW,218,2.0,3.0,81,0.00,,,0.00,Wunderground v.1.15,2013-01-23 13:35:00,
2013-01-23 07:37:00,11.4,6.7,30.31,SW,218,2.0,3.0,81,0.00,,,0.00,Wunderground v.1.15,2013-01-23 13:37:00,
2013-01-23 07:39:00,11.4,6.7,30.31,SW,218,2.0,3.0,81,0.00,,,0.00,Wunderground v.1.15,2013-01-23 13:39:00,
2013-01-23 07:42:00,11.4,6.7,30.31,SW,218,2.0,3.0,81,0.00,,,0.00,Wunderground v.1.15,2013-01-23 13:42:00,
2013-01-23 07:45:00,11.4,7.0,30.30,SW,218,2.0,3.0,82,0.00,,,0.00,Wunderground v.1.15,2013-01-23 13:45:00,
2013-01-23 07:47:00,11.4,7.0,30.30,SW,218,2.0,3.0,82,0.00,,,0.00,Wunderground v.1.15,2013-01-23 13:47:00,
2013-01-23 07:51:00,11.4,7.0,30.31,SW,215,2.0,3.0,82,0.00,,,0.00,Wunderground v.1.15,2013-01-23 13:51:00,
2013-01-23 07:53:00,11.3,6.9,30.31,SW,214,3.0,4.0,82,0.00,,,0.00,Wunderground v.1.15,2013-01-23 13:53:00,
2013-01-23 07:54:00,11.3,6.9,30.31,SSW,213,3.0,4.0,82,0.00,,,0.00,Wunderground v.1.15,2013-01-23 13:54:00,
2013-01-23 07:56:00,11.4,7.0,30.31,SSW,213,3.0,4.0,82,0.00,,,0.00,Wunderground v.1.15,2013-01-23 13:56:00,
2013-01-23 07:57:00,11.4,7.0,30.31,SSW,213,4.0,4.0,82,0.00,,,0.00,Wunderground v.1.15,2013-01-23 13:57:00,
2013-01-23 07:58:00,11.4,7.0,30.31,SSW,213,4.0,4.0,82,0.00,,,0.00,Wunderground v.1.15,2013-01-23 13:58:00,
2013-01-23 07:59:00,11.4,7.0,30.31,SSW,213,4.0,4.0,82,0.00,,,0.00,Wunderground v.1.15,2013-01-23 13:59:00,
2013-01-23 08:02:00,11.4,7.0,30.31,SSW,213,3.0,3.0,82,0.00,,,0.00,Wunderground v.1.15,2013-01-23 14:02:00,
2013-01-23 08:04:00,11.5,7.1,30.31,SSW,213,3.0,4.0,82,0.00,,,0.00,Wunderground v.1.15,2013-01-23 14:04:00,
2013-01-23 08:06:00,11.5,7.1,30.31,SSW,211,3.0,5.0,82,0.00,,,0.00,Wunderground v.1.15,2013-01-23 14:06:00,
2013-01-23 08:08:00,11.5,7.1,30.31,SSW,209,3.0,6.0,82,0.00,,,0.00,Wunderground v.1.15,2013-01-23 14:08:00,
2013-01-23 08:09:00,11.5,7.1,30.31,SSW,208,3.0,6.0,82,0.00,,,0.00,Wunderground v.1.15,2013-01-23 14:09:00,
2013-01-23 08:12:00,11.5,7.1,30.31,SSW,208,3.0,3.0,82,0.00,,,0.00,Wunderground v.1.15,2013-01-23 14:12:00,
2013-01-23 08:14:00,11.6,7.2,30.31,SSW,208,3.0,4.0,82,0.00,,,0.00,Wunderground v.1.15,2013-01-23 14:14:00,
2013-01-23 08:18:00,11.6,7.4,30.31,SSW,198,3.0,5.0,83,0.00,,,0.00,Wunderground v.1.15,2013-01-23 14:18:00,
2013-01-23 08:19:00,11.6,7.4,30.31,SSW,198,3.0,5.0,83,0.00,,,0.00,Wunderground v.1.15,2013-01-23 14:19:00,
2013-01-23 08:21:00,11.6,7.4,30.31,SSW,198,3.0,3.0,83,0.00,,,0.00,Wunderground v.1.15,2013-01-23 14:21:00,
2013-01-23 08:26:00,11.7,7.5,30.31,SSW,198,2.0,3.0,83,0.00,,,0.00,Wunderground v.1.15,2013-01-23 14:26:00,
2013-01-23 08:27:00,11.7,7.5,30.31,SSW,198,2.0,3.0,83,0.00,,,0.00,Wunderground v.1.15,2013-01-23 14:27:00,
2013-01-23 08:28:00,11.7,7.5,30.31,SSW,198,3.0,5.0,83,0.00,,,0.00,Wunderground v.1.15,2013-01-23 14:28:00,
2013-01-23 08:31:00,11.8,7.4,30.31,SSW,196,3.0,6.0,82,0.00,,,0.00,Wunderground v.1.15,2013-01-23 14:31:00,
2013-01-23 08:32:00,11.8,7.4,30.31,SSW,196,3.0,6.0,82,0.00,,,0.00,Wunderground v.1.15,2013-01-23 14:32:00,
2013-01-23 08:36:00,11.9,7.5,30.31,SSW,198,4.0,7.0,82,0.00,,,0.00,Wunderground v.1.15,2013-01-23 14:36:00,
2013-01-23 08:37:00,11.9,7.5,30.31,SSW,199,4.0,7.0,82,0.00,,,0.00,Wunderground v.1.15,2013-01-23 14:37:00,
2013-01-23 08:42:00,12.0,7.6,30.31,SSW,198,4.0,4.0,82,0.00,,,0.00,Wunderground v.1.15,2013-01-23 14:42:00,
2013-01-23 08:43:00,12.1,7.7,30.31,SSW,198,3.0,4.0,82,0.00,,,0.00,Wunderground v.1.15,2013-01-23 14:43:00,
2013-01-23 08:45:00,12.2,7.8,30.31,South,190,3.0,5.0,82,0.00,,,0.00,Wunderground v.1.15,2013-01-23 14:45:00,
2013-01-23 08:51:00,12.3,7.6,30.31,South,180,3.0,5.0,81,0.00,,,0.00,Wunderground v.1.15,2013-01-23 14:51:00,
2013-01-23 08:52:00,12.3,7.6,30.31,SSW,194,3.0,5.0,81,0.00,,,0.00,Wunderground v.1.15,2013-01-23 14:52:00,
2013-01-23 08:54:00,12.3,7.3,30.31,SSW,196,4.0,5.0,80,0.00,,,0.00,Wunderground v.1.15,2013-01-23 14:54:00,
2013-01-23 08:56:00,12.4,7.4,30.30,SSW,192,4.0,5.0,80,0.00,,,0.00,Wunderground v.1.15,2013-01-23 14:56:00,
2013-01-23 08:57:00,12.4,7.4,30.31,SSW,206,4.0,5.0,80,0.00,,,0.00,Wunderground v.1.15,2013-01-23 14:57:00,
2013-01-23 08:58:00,12.4,7.4,30.31,SSW,208,4.0,5.0,80,0.00,,,0.00,Wunderground v.1.15,2013-01-23 14:58:00,
2013-01-23 09:00:00,12.5,7.8,30.30,SSW,207,4.0,4.0,81,0.00,,,0.00,Wunderground v.1.15,2013-01-23 15:00:00,
2013-01-23 09:02:00,12.6,7.9,30.31,SSW,194,4.0,5.0,81,0.00,,,0.00,Wunderground v.1.15,2013-01-23 15:02:00,
2013-01-23 09:06:00,12.7,8.0,30.31,SSW,193,4.0,9.0,81,0.00,,,0.00,Wunderground v.1.15,2013-01-23 15:06:00,
2013-01-23 09:08:00,12.8,7.8,30.31,South,182,5.0,9.0,80,0.00,,,0.00,Wunderground v.1.15,2013-01-23 15:08:00,
2013-01-23 09:09:00,12.7,7.7,30.31,South,184,5.0,9.0,80,0.00,,,0.00,Wunderground v.1.15,2013-01-23 15:09:00,
2013-01-23 09:10:00,12.8,7.8,30.31,South,190,5.0,5.0,80,0.00,,,0.00,Wunderground v.1.15,2013-01-23 15:10:00,
2013-01-23 09:13:00,12.8,7.8,30.31,SSW,196,5.0,7.0,80,0.00,,,0.00,Wunderground v.1.15,2013-01-23 15:13:00,
2013-01-23 09:14:00,12.8,7.8,30.31,SSW,194,5.0,7.0,80,0.00,,,0.00,Wunderground v.1.15,2013-01-23 15:14:00,
2013-01-23 09:16:00,12.8,7.8,30.31,SSW,194,5.0,7.0,80,0.00,,,0.00,Wunderground v.1.15,2013-01-23 15:16:00,
2013-01-23 09:18:00,12.9,8.2,30.31,SSW,197,4.0,9.0,81,0.00,,,0.00,Wunderground v.1.15,2013-01-23 15:18:00,
2013-01-23 09:21:00,13.0,8.3,30.31,SSW,196,4.0,6.0,81,0.00,,,0.00,Wunderground v.1.15,2013-01-23 15:21:00,
2013-01-23 09:23:00,13.1,8.4,30.31,South,186,4.0,10.0,81,0.00,,,0.00,Wunderground v.1.15,2013-01-23 15:23:00,
2013-01-23 09:27:00,13.2,8.2,30.31,SSW,193,5.0,10.0,80,0.00,,,0.00,Wunderground v.1.15,2013-01-23 15:27:00,
2013-01-23 09:28:00,13.3,8.3,30.31,South,190,5.0,10.0,80,0.00,,,0.00,Wunderground v.1.15,2013-01-23 15:28:00,
2013-01-23 09:29:00,13.3,8.3,30.31,South,188,5.0,10.0,80,0.00,,,0.00,Wunderground v.1.15,2013-01-23 15:29:00,
2013-01-23 09:30:00,13.4,8.4,30.31,South,186,5.0,5.0,80,0.00,,,0.00,Wunderground v.1.15,2013-01-23 15:30:00,
2013-01-23 09:32:00,13.4,8.4,30.31,South,189,5.0,8.0,80,0.00,,,0.00,Wunderground v.1.15,2013-01-23 15:32:00,
2013-01-23 09:34:00,13.4,8.4,30.31,South,184,5.0,8.0,80,0.00,,,0.00,Wunderground v.1.15,2013-01-23 15:34:00,
2013-01-23 09:35:00,13.4,8.4,30.31,SSW,199,5.0,8.0,80,0.00,,,0.00,Wunderground v.1.15,2013-01-23 15:35:00,
2013-01-23 09:37:00,13.4,8.4,30.31,SSW,199,5.0,8.0,80,0.00,,,0.00,Wunderground v.1.15,2013-01-23 15:37:00,
2013-01-23 09:38:00,13.4,8.7,30.31,SSW,200,5.0,8.0,81,0.00,,,0.00,Wunderground v.1.15,2013-01-23 15:38:00,
2013-01-23 09:39:00,13.4,8.7,30.31,SSW,200,4.0,8.0,81,0.00,,,0.00,Wunderground v.1.15,2013-01-23 15:39:00,
2013-01-23 09:41:00,13.4,8.7,30.32,SW,230,5.0,8.0,81,0.00,,,0.00,Wunderground v.1.15,2013-01-23 15:41:00,
2013-01-23 09:43:00,13.5,8.8,30.31,SW,222,5.0,8.0,81,0.00,,,0.00,Wunderground v.1.15,2013-01-23 15:43:00,
2013-01-23 09:45:00,13.5,9.0,30.31,SW,215,5.0,8.0,82,0.00,,,0.00,Wunderground v.1.15,2013-01-23 15:45:00,
2013-01-23 09:47:00,13.5,9.0,30.31,SSW,194,5.0,8.0,82,0.00,,,0.00,Wunderground v.1.15,2013-01-23 15:47:00,
2013-01-23 09:50:00,13.6,9.1,30.31,SSW,205,5.0,5.0,82,0.00,,,0.00,Wunderground v.1.15,2013-01-23 15:50:00,
2013-01-23 09:52:00,13.6,9.1,30.31,SSW,202,5.0,5.0,82,0.00,,,0.00,Wunderground v.1.15,2013-01-23 15:52:00,
2013-01-23 09:53:00,13.6,9.1,30.31,SSW,200,4.0,6.0,82,0.00,,,0.00,Wunderground v.1.15,2013-01-23 15:53:00,
2013-01-23 09:55:00,13.7,9.2,30.31,SSW,196,5.0,6.0,82,0.00,,,0.00,Wunderground v.1.15,2013-01-23 15:55:00,
2013-01-23 10:00:00,13.7,9.2,30.31,SSW,192,5.0,5.0,82,0.00,,,0.00,Wunderground v.1.15,2013-01-23 16:00:00,
2013-01-23 10:02:00,13.7,9.5,30.31,South,189,5.0,5.0,83,0.00,,,0.00,Wunderground v.1.15,2013-01-23 16:02:00,
2013-01-23 10:04:00,13.7,9.2,30.31,South,190,5.0,7.0,82,0.00,,,0.00,Wunderground v.1.15,2013-01-23 16:04:00,
2013-01-23 10:05:00,13.7,9.2,30.31,South,191,4.0,7.0,82,0.00,,,0.00,Wunderground v.1.15,2013-01-23 16:05:00,
2013-01-23 10:07:00,13.7,9.5,30.31,South,191,4.0,7.0,83,0.00,,,0.00,Wunderground v.1.15,2013-01-23 16:07:00,
2013-01-23 10:08:00,13.7,9.5,30.31,SSE,167,4.0,7.0,83,0.00,,,0.00,Wunderground v.1.15,2013-01-23 16:08:00,
2013-01-23 10:11:00,13.8,9.6,30.30,South,186,5.0,5.0,83,0.00,,,0.00,Wunderground v.1.15,2013-01-23 16:11:00,
2013-01-23 10:13:00,13.8,9.6,30.31,South,186,5.0,5.0,83,0.00,,,0.00,Wunderground v.1.15,2013-01-23 16:13:00,
2013-01-23 10:14:00,13.8,9.6,30.31,South,186,4.0,5.0,83,0.00,,,0.00,Wunderground v.1.15,2013-01-23 16:14:00,
2013-01-23 10:15:00,13.8,9.6,30.31,SSW,194,5.0,5.0,83,0.00,,,0.00,Wunderground v.1.15,2013-01-23 16:15:00,
2013-01-23 10:19:00,13.9,9.7,30.30,SSW,197,5.0,5.0,83,0.00,,,0.00,Wunderground v.1.15,2013-01-23 16:19:00,
2013-01-23 10:20:00,14.0,9.8,30.30,SSW,197,4.0,4.0,83,0.00,,,0.00,Wunderground v.1.15,2013-01-23 16:20:00,
2013-01-23 10:25:00,14.0,9.5,30.29,SSW,198,4.0,4.0,82,0.00,,,0.00,Wunderground v.1.15,2013-01-23 16:25:00,
2013-01-23 10:26:00,14.0,9.5,30.29,SSW,198,4.0,5.0,82,0.00,,,0.00,Wunderground v.1.15,2013-01-23 16:26:00,
2013-01-23 10:29:00,14.1,9.6,30.29,SSW,196,4.0,5.0,82,0.00,,,0.00,Wunderground v.1.15,2013-01-23 16:29:00,
2013-01-23 10:31:00,14.1,9.6,30.29,SSW,196,4.0,4.0,82,0.00,,,0.00,Wunderground v.1.15,2013-01-23 16:31:00,
2013-01-23 10:32:00,14.2,9.7,30.29,SSW,196,4.0,4.0,82,0.00,,,0.00,Wunderground v.1.15,2013-01-23 16:32:00,
2013-01-23 10:33:00,14.2,9.7,30.29,SSW,193,4.0,4.0,82,0.00,,,0.00,Wunderground v.1.15,2013-01-23 16:33:00,
2013-01-23 10:36:00,14.2,9.4,30.29,South,187,5.0,9.0,81,0.00,,,0.00,Wunderground v.1.15,2013-01-23 16:36:00,
2013-01-23 10:38:00,14.1,9.3,30.29,South,178,5.0,9.0,81,0.00,,,0.00,Wunderground v.1.15,2013-01-23 16:38:00,
2013-01-23 10:41:00,14.1,9.6,30.29,SSW,196,6.0,6.0,82,0.00,,,0.00,Wunderground v.1.15,2013-01-23 16:41:00,
2013-01-23 10:44:00,14.1,9.6,30.28,South,173,6.0,9.0,82,0.00,,,0.00,Wunderground v.1.15,2013-01-23 16:44:00,
2013-01-23 10:46:00,14.1,9.6,30.29,SW,216,5.0,9.0,82,0.00,,,0.00,Wunderground v.1.15,2013-01-23 16:46:00,
2013-01-23 10:49:00,14.1,9.6,30.28,SSW,200,5.0,9.0,82,0.00,,,0.00,Wunderground v.1.15,2013-01-23 16:49:00,
2013-01-23 10:50:00,14.1,9.6,30.28,South,191,5.0,5.0,82,0.00,,,0.00,Wunderground v.1.15,2013-01-23 16:50:00,
2013-01-23 10:52:00,14.1,9.6,30.28,South,186,5.0,6.0,82,0.00,,,0.00,Wunderground v.1.15,2013-01-23 16:52:00,
2013-01-23 10:53:00,14.1,9.6,30.28,South,173,5.0,10.0,82,0.00,,,0.00,Wunderground v.1.15,2013-01-23 16:53:00,
2013-01-23 10:58:00,14.0,9.5,30.28,South,188,5.0,10.0,82,0.00,,,0.00,Wunderground v.1.15,2013-01-23 16:58:00,
2013-01-23 10:59:00,14.0,9.5,30.28,SSW,192,5.0,10.0,82,0.00,,,0.00,Wunderground v.1.15,2013-01-23 16:59:00,
2013-01-23 11:00:00,14.0,9.5,30.28,SSW,192,5.0,5.0,82,0.00,,,0.00,Wunderground v.1.15,2013-01-23 17:00:00,
2013-01-23 11:01:00,14.0,9.5,30.28,South,173,5.0,6.0,82,0.00,,,0.00,Wunderground v.1.15,2013-01-23 17:01:00,
2013-01-23 11:06:00,13.9,9.4,30.27,SSW,198,6.0,6.0,82,0.00,,,0.00,Wunderground v.1.15,2013-01-23 17:06:00,
2013-01-23 11:07:00,13.9,9.4,30.27,SSW,198,6.0,6.0,82,0.00,,,0.00,Wunderground v.1.15,2013-01-23 17:07:00,
2013-01-23 11:08:00,13.9,9.4,30.27,SSW,198,6.0,6.0,82,0.00,,,0.00,Wunderground v.1.15,2013-01-23 17:08:00,
2013-01-23 11:12:00,13.9,9.7,30.27,SSW,192,5.0,9.0,83,0.00,,,0.00,Wunderground v.1.15,2013-01-23 17:12:00,
2013-01-23 11:13:00,13.9,9.7,30.27,SSW,207,5.0,9.0,83,0.00,,,0.00,Wunderground v.1.15,2013-01-23 17:13:00,
2013-01-23 11:15:00,14.0,9.8,30.27,South,181,5.0,9.0,83,0.00,,,0.00,Wunderground v.1.15,2013-01-23 17:15:00,
2013-01-23 11:16:00,14.0,9.8,30.27,South,184,5.0,9.0,83,0.00,,,0.00,Wunderground v.1.15,2013-01-23 17:16:00,
2013-01-23 11:18:00,14.0,9.5,30.26,SSW,198,6.0,10.0,82,0.00,,,0.00,Wunderground v.1.15,2013-01-23 17:18:00,
2013-01-23 11:19:00,14.1,9.6,30.27,South,180,6.0,10.0,82,0.00,,,0.00,Wunderground v.1.15,2013-01-23 17:19:00,
2013-01-23 11:23:00,14.2,10.0,30.26,South,189,6.0,6.0,83,0.00,,,0.00,Wunderground v.1.15,2013-01-23 17:23:00,
2013-01-23 11:24:00,14.3,10.1,30.26,South,185,6.0,7.0,83,0.00,,,0.00,Wunderground v.1.15,2013-01-23 17:24:00,
2013-01-23 11:25:00,14.3,10.1,30.26,SSW,202,6.0,7.0,83,0.00,,,0.00,Wunderground v.1.15,2013-01-23 17:25:00,
2013-01-23 11:28:00,14.4,10.2,30.26,SSW,195,6.0,7.0,83,0.00,,,0.00,Wunderground v.1.15,2013-01-23 17:28:00,
2013-01-23 11:29:00,14.4,9.9,30.26,SSW,205,5.0,7.0,82,0.00,,,0.00,Wunderground v.1.15,2013-01-23 17:29:00,
2013-01-23 11:33:00,14.5,10.0,30.26,South,191,5.0,5.0,82,0.00,,,0.00,Wunderground v.1.15,2013-01-23 17:33:00,
2013-01-23 11:34:00,14.6,10.1,30.26,South,180,5.0,8.0,82,0.00,,,0.00,Wunderground v.1.15,2013-01-23 17:34:00,
2013-01-23 11:35:00,14.6,10.1,30.26,South,181,5.0,8.0,82,0.00,,,0.00,Wunderground v.1.15,2013-01-23 17:35:00,
2013-01-23 11:36:00,14.6,10.1,30.26,South,181,4.0,8.0,82,0.00,,,0.00,Wunderground v.1.15,2013-01-23 17:36:00,
2013-01-23 11:39:00,14.7,10.2,30.26,South,181,4.0,8.0,82,0.00,,,0.00,Wunderground v.1.15,2013-01-23 17:39:00,
2013-01-23 11:40:00,14.7,10.2,30.25,South,180,4.0,6.0,82,0.00,,,0.00,Wunderground v.1.15,2013-01-23 17:40:00,
2013-01-23 11:41:00,14.8,10.3,30.25,South,180,4.0,6.0,82,0.00,,,0.00,Wunderground v.1.15,2013-01-23 17:41:00,
2013-01-23 11:43:00,14.8,10.3,30.25,South,182,4.0,6.0,82,0.00,,,0.00,Wunderground v.1.15,2013-01-23 17:43:00,
2013-01-23 11:46:00,14.8,10.0,30.25,South,190,5.0,6.0,81,0.00,,,0.00,Wunderground v.1.15,2013-01-23 17:46:00,
2013-01-23 11:47:00,14.8,10.0,30.25,South,173,5.0,7.0,81,0.00,,,0.00,Wunderground v.1.15,2013-01-23 17:47:00,
2013-01-23 11:50:00,14.9,10.1,30.24,SSW,201,6.0,6.0,81,0.00,,,0.00,Wunderground v.1.15,2013-01-23 17:50:00,
2013-01-23 11:52:00,14.9,10.1,30.24,SSW,203,6.0,12.0,81,0.00,,,0.00,Wunderground v.1.15,2013-01-23 17:52:00,
2013-01-23 11:54:00,15.0,10.2,30.24,South,174,6.0,12.0,81,0.00,,,0.00,Wunderground v.1.15,2013-01-23 17:54:00,
2013-01-23 11:58:00,15.0,9.9,30.23,SSW,196,6.0,12.0,80,0.00,,,0.00,Wunderground v.1.15,2013-01-23 17:58:00,
2013-01-23 11:59:00,15.0,9.9,30.23,SSW,197,6.0,12.0,80,0.00,,,0.00,Wunderground v.1.15,2013-01-23 17:59:00,
2013-01-23 12:01:00,15.1,10.0,30.23,SSW,192,6.0,10.0,80,0.00,,,0.00,Wunderground v.1.15,2013-01-23 18:01:00,
2013-01-23 12:05:00,15.2,9.9,30.22,SSW,197,6.0,11.0,79,0.00,,,0.00,Wunderground v.1.15,2013-01-23 18:05:00,
2013-01-23 12:06:00,15.2,9.9,30.22,SSW,198,6.0,11.0,79,0.00,,,0.00,Wunderground v.1.15,2013-01-23 18:06:00,
2013-01-23 12:09:00,15.3,10.0,30.22,South,191,6.0,11.0,79,0.00,,,0.00,Wunderground v.1.15,2013-01-23 18:09:00,
2013-01-23 12:10:00,15.3,10.0,30.22,SSW,192,6.0,10.0,79,0.00,,,0.00,Wunderground v.1.15,2013-01-23 18:10:00,
2013-01-23 12:11:00,15.3,10.0,30.22,SSW,205,7.0,10.0,79,0.00,,,0.00,Wunderground v.1.15,2013-01-23 18:11:00,
2013-01-23 12:14:00,15.4,9.5,30.22,South,186,7.0,11.0,77,0.00,,,0.00,Wunderground v.1.15,2013-01-23 18:14:00,
2013-01-23 12:16:00,15.4,9.5,30.21,SSW,192,7.0,11.0,77,0.00,,,0.00,Wunderground v.1.15,2013-01-23 18:16:00,
2013-01-23 12:19:00,15.5,9.3,30.21,South,181,7.0,11.0,76,0.00,,,0.00,Wunderground v.1.15,2013-01-23 18:19:00,
2013-01-23 12:20:00,15.5,9.3,30.21,SSW,197,8.0,10.0,76,0.00,,,0.00,Wunderground v.1.15,2013-01-23 18:20:00,
2013-01-23 12:25:00,15.7,9.2,30.20,South,184,8.0,12.0,75,0.00,,,0.00,Wunderground v.1.15,2013-01-23 18:25:00,
2013-01-23 12:26:00,15.7,9.2,30.20,South,178,8.0,12.0,75,0.00,,,0.00,Wunderground v.1.15,2013-01-23 18:26:00,
2013-01-23 12:27:00,15.8,9.3,30.20,SSW,205,8.0,12.0,75,0.00,,,0.00,Wunderground v.1.15,2013-01-23 18:27:00,
2013-01-23 12:29:00,15.9,9.4,30.20,South,182,8.0,12.0,75,0.00,,,0.00,Wunderground v.1.15,2013-01-23 18:29:00,
2013-01-23 12:31:00,15.9,9.4,30.20,South,182,7.0,7.0,75,0.00,,,0.00,Wunderground v.1.15,2013-01-23 18:31:00,
2013-01-23 12:35:00,16.2,9.4,30.20,SSW,200,7.0,10.0,74,0.00,,,0.00,Wunderground v.1.15,2013-01-23 18:35:00,
2013-01-23 12:37:00,16.2,9.4,30.20,South,182,6.0,10.0,74,0.00,,,0.00,Wunderground v.1.15,2013-01-23 18:37:00,
2013-01-23 12:40:00,16.3,9.2,30.20,South,182,5.0,8.0,73,0.00,,,0.00,Wunderground v.1.15,2013-01-23 18:40:00,
2013-01-23 12:42:00,16.4,9.3,30.20,SSW,206,6.0,8.0,73,0.00,,,0.00,Wunderground v.1.15,2013-01-23 18:42:00,
2013-01-23 12:43:00,16.4,8.9,30.20,South,170,6.0,8.0,72,0.00,,,0.00,Wunderground v.1.15,2013-01-23 18:43:00,
2013-01-23 12:45:00,16.5,9.0,30.20,South,186,6.0,8.0,72,0.00,,,0.00,Wunderground v.1.15,2013-01-23 18:45:00,
2013-01-23 12:48:00,16.6,8.8,30.19,South,174,6.0,9.0,71,0.00,,,0.00,Wunderground v.1.15,2013-01-23 18:48:00,
2013-01-23 12:51:00,16.7,8.9,30.20,SSW,204,6.0,6.0,71,0.00,,,0.00,Wunderground v.1.15,2013-01-23 18:51:00,
2013-01-23 12:52:00,16.7,8.9,30.19,SSW,194,6.0,6.0,71,0.00,,,0.00,Wunderground v.1.15,2013-01-23 18:52:00,
2013-01-23 12:58:00,17.1,9.3,30.19,SSW,201,4.0,8.0,71,0.00,,,0.00,Wunderground v.1.15,2013-01-23 18:58:00,
2013-01-23 12:59:00,17.1,9.3,30.19,SSW,207,4.0,11.0,71,0.00,,,0.00,Wunderground v.1.15,2013-01-23 18:59:00,
2013-01-23 13:01:00,17.3,9.2,30.19,SSW,200,5.0,10.0,70,0.00,,,0.00,Wunderground v.1.15,2013-01-23 19:01:00,
2013-01-23 13:04:00,17.4,9.3,30.19,SSW,203,6.0,10.0,70,0.00,,,0.00,Wunderground v.1.15,2013-01-23 19:04:00,
2013-01-23 13:07:00,17.5,9.1,30.19,SSW,192,7.0,10.0,69,0.00,,,0.00,Wunderground v.1.15,2013-01-23 19:07:00,
2013-01-23 13:10:00,17.6,9.2,30.19,SSW,204,7.0,7.0,69,0.00,,,0.00,Wunderground v.1.15,2013-01-23 19:10:00,
2013-01-23 13:11:00,17.6,9.5,30.19,SSW,204,6.0,7.0,70,0.00,,,0.00,Wunderground v.1.15,2013-01-23 19:11:00,
2013-01-23 13:15:00,17.8,9.7,30.20,SW,232,6.0,10.0,70,0.00,,,0.00,Wunderground v.1.15,2013-01-23 19:15:00,
2013-01-23 13:16:00,17.9,9.8,30.19,SW,225,5.0,10.0,70,0.00,,,0.00,Wunderground v.1.15,2013-01-23 19:16:00,
2013-01-23 13:20:00,18.0,9.5,30.19,SW,229,6.0,6.0,69,0.00,,,0.00,Wunderground v.1.15,2013-01-23 19:20:00,
2013-01-23 13:21:00,18.0,9.5,30.19,SW,225,6.0,6.0,69,0.00,,,0.00,Wunderground v.1.15,2013-01-23 19:21:00,
2013-01-23 13:22:00,18.0,9.5,30.19,SSW,196,6.0,8.0,69,0.00,,,0.00,Wunderground v.1.15,2013-01-23 19:22:00,
2013-01-23 13:24:00,18.1,9.6,30.19,SSW,211,6.0,9.0,69,0.00,,,0.00,Wunderground v.1.15,2013-01-23 19:24:00,
2013-01-23 13:26:00,18.1,9.3,30.19,SSW,212,6.0,9.0,68,0.00,,,0.00,Wunderground v.1.15,2013-01-23 19:26:00,
2013-01-23 13:28:00,18.2,9.7,30.19,SW,214,5.0,9.0,69,0.00,,,0.00,Wunderground v.1.15,2013-01-23 19:28:00,
2013-01-23 13:31:00,18.3,9.8,30.19,SW,223,5.0,5.0,69,0.00,,,0.00,Wunderground v.1.15,2013-01-23 19:31:00,
2013-01-23 13:33:00,18.4,10.2,30.19,SSW,212,4.0,6.0,70,0.00,,,0.00,Wunderground v.1.15,2013-01-23 19:33:00,
2013-01-23 13:35:00,18.5,10.0,30.19,SSW,196,4.0,6.0,69,0.00,,,0.00,Wunderground v.1.15,2013-01-23 19:35:00,
2013-01-23 13:37:00,18.6,10.1,30.19,SSW,200,4.0,6.0,69,0.00,,,0.00,Wunderground v.1.15,2013-01-23 19:37:00,
2013-01-23 13:38:00,18.6,10.1,30.19,SSW,203,5.0,6.0,69,0.00,,,0.00,Wunderground v.1.15,2013-01-23 19:38:00,
2013-01-23 13:40:00,18.6,10.1,30.19,SW,232,4.0,4.0,69,0.00,,,0.00,Wunderground v.1.15,2013-01-23 19:40:00,
2013-01-23 13:42:00,18.7,10.2,30.19,SW,234,5.0,5.0,69,0.00,,,0.00,Wunderground v.1.15,2013-01-23 19:42:00,
2013-01-23 13:44:00,18.8,10.6,30.19,SW,229,4.0,5.0,70,0.00,,,0.00,Wunderground v.1.15,2013-01-23 19:44:00,
2013-01-23 13:48:00,18.9,10.7,30.19,SW,216,4.0,6.0,70,0.00,,,0.00,Wunderground v.1.15,2013-01-23 19:48:00,
2013-01-23 13:49:00,19.0,10.8,30.19,SW,215,4.0,6.0,70,0.00,,,0.00,Wunderground v.1.15,2013-01-23 19:49:00,
2013-01-23 13:51:00,19.0,10.8,30.19,SW,215,4.0,4.0,70,0.00,,,0.00,Wunderground v.1.15,2013-01-23 19:51:00,
2013-01-23 13:55:00,19.2,10.7,30.19,SSW,202,4.0,6.0,69,0.00,,,0.00,Wunderground v.1.15,2013-01-23 19:55:00,
2013-01-23 13:56:00,19.2,10.7,30.19,SSW,203,4.0,6.0,69,0.00,,,0.00,Wunderground v.1.15,2013-01-23 19:56:00,
2013-01-23 13:57:00,19.2,10.7,30.19,SSW,210,5.0,9.0,69,0.00,,,0.00,Wunderground v.1.15,2013-01-23 19:57:00,
2013-01-23 13:58:00,19.3,10.8,30.18,SSW,199,5.0,9.0,69,0.00,,,0.00,Wunderground v.1.15,2013-01-23 19:58:00,
2013-01-23 14:02:00,19.3,11.1,30.19,SW,227,5.0,5.0,70,0.00,,,0.00,Wunderground v.1.15,2013-01-23 20:02:00,
2013-01-23 14:03:00,19.4,11.2,30.19,SW,230,5.0,5.0,70,0.00,,,0.00,Wunderground v.1.15,2013-01-23 20:03:00,
2013-01-23 14:04:00,19.4,11.2,30.19,SW,232,5.0,7.0,70,0.00,,,0.00,Wunderground v.1.15,2013-01-23 20:04:00,
2013-01-23 14:05:00,19.4,11.2,30.19,SW,224,5.0,7.0,70,0.00,,,0.00,Wunderground v.1.15,2013-01-23 20:05:00,
2013-01-23 14:07:00,19.4,10.9,30.19,SW,224,5.0,7.0,69,0.00,,,0.00,Wunderground v.1.15,2013-01-23 20:07:00,
2013-01-23 14:09:00,19.5,11.3,30.19,SSW,213,5.0,7.0,70,0.00,,,0.00,Wunderground v.1.15,2013-01-23 20:09:00,
2013-01-23 14:10:00,19.5,11.3,30.18,SSW,211,5.0,5.0,70,0.00,,,0.00,Wunderground v.1.15,2013-01-23 20:10:00,
2013-01-23 14:13:00,19.6,11.7,30.18,SW,215,5.0,6.0,71,0.00,,,0.00,Wunderground v.1.15,2013-01-23 20:13:00,
2013-01-23 14:14:00,19.7,11.8,30.18,SW,217,4.0,6.0,71,0.00,,,0.00,Wunderground v.1.15,2013-01-23 20:14:00,
2013-01-23 14:16:00,19.7,11.8,30.18,WSW,256,4.0,6.0,71,0.00,,,0.00,Wunderground v.1.15,2013-01-23 20:16:00,
2013-01-23 14:19:00,19.7,11.5,30.18,SW,234,4.0,6.0,70,0.00,,,0.00,Wunderground v.1.15,2013-01-23 20:19:00,
2013-01-23 14:20:00,19.8,11.6,30.17,SW,234,4.0,4.0,70,0.00,,,0.00,Wunderground v.1.15,2013-01-23 20:20:00,
2013-01-23 14:21:00,19.8,11.6,30.17,SW,234,4.0,4.0,70,0.00,,,0.00,Wunderground v.1.15,2013-01-23 20:21:00,
2013-01-23 14:22:00,19.8,11.6,30.17,SW,234,4.0,4.0,70,0.00,,,0.00,Wunderground v.1.15,2013-01-23 20:22:00,
2013-01-23 14:27:00,19.9,12.3,30.17,SW,229,4.0,4.0,72,0.00,,,0.00,Wunderground v.1.15,2013-01-23 20:27:00,
2013-01-23 14:28:00,20.0,12.4,30.17,SW,223,4.0,6.0,72,0.00,,,0.00,Wunderground v.1.15,2013-01-23 20:28:00,
2013-01-23 14:30:00,20.1,12.2,30.17,SW,225,3.0,4.0,71,0.00,,,0.00,Wunderground v.1.15,2013-01-23 20:30:00,
2013-01-23 14:33:00,20.1,12.2,30.17,SW,227,4.0,5.0,71,0.00,,,0.00,Wunderground v.1.15,2013-01-23 20:33:00,
2013-01-23 14:35:00,20.2,12.3,30.17,SW,226,4.0,5.0,71,0.00,,,0.00,Wunderground v.1.15,2013-01-23 20:35:00,
2013-01-23 14:36:00,20.2,12.3,30.17,SW,226,4.0,5.0,71,0.00,,,0.00,Wunderground v.1.15,2013-01-23 20:36:00,
2013-01-23 14:37:00,20.3,12.4,30.17,SW,226,4.0,5.0,71,0.00,,,0.00,Wunderground v.1.15,2013-01-23 20:37:00,
2013-01-23 14:43:00,20.4,12.5,30.17,SW,217,4.0,6.0,71,0.00,,,0.00,Wunderground v.1.15,2013-01-23 20:43:00,
2013-01-23 14:44:00,20.5,12.6,30.17,SW,219,4.0,6.0,71,0.00,,,0.00,Wunderground v.1.15,2013-01-23 20:44:00,
2013-01-23 14:45:00,20.6,13.0,30.17,WSW,245,4.0,6.0,72,0.00,,,0.00,Wunderground v.1.15,2013-01-23 20:45:00,
2013-01-23 14:46:00,20.6,13.0,30.17,WSW,245,4.0,6.0,72,0.00,,,0.00,Wunderground v.1.15,2013-01-23 20:46:00,
2013-01-23 14:49:00,20.8,13.2,30.17,West,276,4.0,6.0,72,0.00,,,0.00,Wunderground v.1.15,2013-01-23 20:49:00,
2013-01-23 14:50:00,20.8,12.9,30.17,WSW,253,4.0,6.0,71,0.00,,,0.00,Wunderground v.1.15,2013-01-23 20:50:00,
2013-01-23 14:52:00,20.9,13.0,30.17,WSW,253,4.0,6.0,71,0.00,,,0.00,Wunderground v.1.15,2013-01-23 20:52:00,
2013-01-23 14:55:00,20.9,12.6,30.17,WSW,248,4.0,6.0,70,0.00,,,0.00,Wunderground v.1.15,2013-01-23 20:55:00,
2013-01-23 14:56:00,20.9,12.6,30.17,WSW,248,4.0,6.0,70,0.00,,,0.00,Wunderground v.1.15,2013-01-23 20:56:00,
2013-01-23 14:57:00,20.9,12.6,30.17,WSW,248,4.0,6.0,70,0.00,,,0.00,Wunderground v.1.15,2013-01-23 20:57:00,
2013-01-23 15:01:00,21.1,12.5,30.17,WSW,252,4.0,6.0,69,0.00,,,0.00,Wunderground v.1.15,2013-01-23 21:01:00,
2013-01-23 15:02:00,21.2,12.6,30.18,WSW,254,4.0,6.0,69,0.00,,,0.00,Wunderground v.1.15,2013-01-23 21:02:00,
2013-01-23 15:03:00,21.2,12.6,30.18,WSW,256,4.0,6.0,69,0.00,,,0.00,Wunderground v.1.15,2013-01-23 21:03:00,
2013-01-23 15:04:00,21.3,12.7,30.18,WSW,255,4.0,6.0,69,0.00,,,0.00,Wunderground v.1.15,2013-01-23 21:04:00,
2013-01-23 15:09:00,21.5,12.6,30.18,West,260,2.0,6.0,68,0.00,,,0.00,Wunderground v.1.15,2013-01-23 21:09:00,
2013-01-23 15:10:00,21.6,12.7,30.18,West,271,2.0,2.0,68,0.00,,,0.00,Wunderground v.1.15,2013-01-23 21:10:00,
2013-01-23 15:11:00,21.6,12.7,30.18,West,271,2.0,3.0,68,0.00,,,0.00,Wunderground v.1.15,2013-01-23 21:11:00,
2013-01-23 15:12:00,21.6,12.7,30.18,West,271,2.0,3.0,68,0.00,,,0.00,Wunderground v.1.15,2013-01-23 21:12:00,
2013-01-23 15:15:00,21.8,13.2,30.17,West,265,2.0,3.0,69,0.00,,,0.00,Wunderground v.1.15,2013-01-23 21:15:00,
2013-01-23 15:16:00,21.8,13.2,30.17,West,265,2.0,3.0,69,0.00,,,0.00,Wunderground v.1.15,2013-01-23 21:16:00,
2013-01-23 15:21:00,21.8,12.5,30.17,WSW,246,2.0,2.0,67,0.00,,,0.00,Wunderground v.1.15,2013-01-23 21:21:00,
2013-01-23 15:22:00,21.8,12.5,30.17,WSW,246,2.0,3.0,67,0.00,,,0.00,Wunderground v.1.15,2013-01-23 21:22:00,
2013-01-23 15:23:00,21.8,12.5,30.17,WSW,244,2.0,5.0,67,0.00,,,0.00,Wunderground v.1.15,2013-01-23 21:23:00,
2013-01-23 15:25:00,21.6,12.3,30.17,WSW,243,2.0,5.0,67,0.00,,,0.00,Wunderground v.1.15,2013-01-23 21:25:00,
2013-01-23 15:28:00,21.3,12.0,30.17,WSW,245,1.0,5.0,67,0.00,,,0.00,Wunderground v.1.15,2013-01-23 21:28:00,
2013-01-23 15:29:00,21.3,12.0,30.17,WSW,245,1.0,5.0,67,0.00,,,0.00,Wunderground v.1.15,2013-01-23 21:29:00,
2013-01-23 15:32:00,21.1,12.2,30.17,WSW,244,1.0,1.0,68,0.00,,,0.00,Wunderground v.1.15,2013-01-23 21:32:00,
2013-01-23 15:34:00,21.0,12.4,30.17,WSW,244,0.0,2.0,69,0.00,,,0.00,Wunderground v.1.15,2013-01-23 21:34:00,
2013-01-23 15:36:00,20.9,12.3,30.17,WSW,244,1.0,2.0,69,0.00,,,0.00,Wunderground v.1.15,2013-01-23 21:36:00,
2013-01-23 15:37:00,20.9,12.3,30.18,WSW,244,1.0,2.0,69,0.00,,,0.00,Wunderground v.1.15,2013-01-23 21:37:00,
2013-01-23 15:39:00,20.8,12.2,30.18,WSW,244,1.0,2.0,69,0.00,,,0.00,Wunderground v.1.15,2013-01-23 21:39:00,
2013-01-23 15:42:00,20.8,12.2,30.17,WSW,244,1.0,2.0,69,0.00,,,0.00,Wunderground v.1.15,2013-01-23 21:42:00,
2013-01-23 15:44:00,20.8,12.2,30.17,WSW,244,1.0,2.0,69,0.00,,,0.00,Wunderground v.1.15,2013-01-23 21:44:00,
2013-01-23 15:46:00,20.8,12.2,30.17,WSW,244,1.0,2.0,69,0.00,,,0.00,Wunderground v.1.15,2013-01-23 21:46:00,
2013-01-23 15:50:00,20.8,12.2,30.18,WSW,245,1.0,2.0,69,0.00,,,0.00,Wunderground v.1.15,2013-01-23 21:50:00,
2013-01-23 15:51:00,20.8,12.2,30.18,West,261,1.0,4.0,69,0.00,,,0.00,Wunderground v.1.15,2013-01-23 21:51:00,
2013-01-23 15:53:00,20.7,12.1,30.18,West,261,1.0,4.0,69,0.00,,,0.00,Wunderground v.1.15,2013-01-23 21:53:00,
2013-01-23 15:56:00,20.6,12.0,30.18,West,261,2.0,4.0,69,0.00,,,0.00,Wunderground v.1.15,2013-01-23 21:56:00,
2013-01-23 15:58:00,20.6,12.0,30.18,West,261,2.0,4.0,69,0.00,,,0.00,Wunderground v.1.15,2013-01-23 21:58:00,
2013-01-23 15:59:00,20.6,12.0,30.19,West,261,2.0,4.0,69,0.00,,,0.00,Wunderground v.1.15,2013-01-23 21:59:00,
2013-01-23 16:01:00,20.5,11.9,30.19,West,261,2.0,2.0,69,0.00,,,0.00,Wunderground v.1.15,2013-01-23 22:01:00,
2013-01-23 16:04:00,20.4,11.8,30.19,West,261,1.0,2.0,69,0.00,,,0.00,Wunderground v.1.15,2013-01-23 22:04:00,
2013-01-23 16:06:00,20.3,11.7,30.19,West,261,1.0,2.0,69,0.00,,,0.00,Wunderground v.1.15,2013-01-23 22:06:00,
2013-01-23 16:07:00,20.3,11.7,30.19,West,267,1.0,2.0,69,0.00,,,0.00,Wunderground v.1.15,2013-01-23 22:07:00,
2013-01-23 16:09:00,20.2,11.7,30.19,West,267,1.0,2.0,69,0.00,,,0.00,Wunderground v.1.15,2013-01-23 22:09:00,
2013-01-23 16:12:00,20.0,11.5,30.19,West,272,1.0,3.0,69,0.00,,,0.00,Wunderground v.1.15,2013-01-23 22:12:00,
2013-01-23 16:14:00,19.9,11.4,30.19,West,272,2.0,3.0,69,0.00,,,0.00,Wunderground v.1.15,2013-01-23 22:14:00,
2013-01-23 16:15:00,19.8,11.6,30.19,West,273,2.0,3.0,70,0.00,,,0.00,Wunderground v.1.15,2013-01-23 22:15:00,
2013-01-23 16:17:00,19.7,11.5,30.19,West,273,2.0,3.0,70,0.00,,,0.00,Wunderground v.1.15,2013-01-23 22:17:00,
2013-01-23 16:19:00,19.7,11.5,30.19,West,273,2.0,3.0,70,0.00,,,0.00,Wunderground v.1.15,2013-01-23 22:19:00,
2013-01-23 16:22:00,19.7,11.5,30.18,West,273,1.0,1.0,70,0.00,,,0.00,Wunderground v.1.15,2013-01-23 22:22:00,
2013-01-23 16:23:00,19.7,11.8,30.18,West,273,1.0,1.0,71,0.00,,,0.00,Wunderground v.1.15,2013-01-23 22:23:00,
2013-01-23 16:28:00,19.7,11.8,30.18,West,273,1.0,1.0,71,0.00,,,0.00,Wunderground v.1.15,2013-01-23 22:28:00,
2013-01-23 16:33:00,19.6,11.4,30.18,West,273,1.0,1.0,70,0.00,,,0.00,Wunderground v.1.15,2013-01-23 22:33:00,
2013-01-23 16:34:00,19.6,11.7,30.19,West,273,0.0,1.0,71,0.00,,,0.00,Wunderground v.1.15,2013-01-23 22:34:00,
2013-01-23 16:37:00,19.4,11.5,30.18,West,273,0.0,1.0,71,0.00,,,0.00,Wunderground v.1.15,2013-01-23 22:37:00,
2013-01-23 16:39:00,19.3,11.4,30.18,WNW,291,0.0,1.0,71,0.00,,,0.00,Wunderground v.1.15,2013-01-23 22:39:00,
2013-01-23 16:41:00,19.2,11.3,30.18,WNW,291,0.0,0.0,71,0.00,,,0.00,Wunderground v.1.15,2013-01-23 22:41:00,
2013-01-23 16:42:00,19.2,11.3,30.18,WNW,291,0.0,0.0,71,0.00,,,0.00,Wunderground v.1.15,2013-01-23 22:42:00,
2013-01-23 16:44:00,19.0,11.1,30.18,WNW,291,0.0,0.0,71,0.00,,,0.00,Wunderground v.1.15,2013-01-23 22:44:00,
2013-01-23 16:46:00,18.8,10.9,30.18,WNW,291,0.0,0.0,71,0.00,,,0.00,Wunderground v.1.15,2013-01-23 22:46:00,
2013-01-23 16:48:00,18.6,10.8,30.18,WNW,291,0.0,0.0,71,0.00,,,0.00,Wunderground v.1.15,2013-01-23 22:48:00,
2013-01-23 16:49:00,18.5,10.7,30.18,WNW,291,0.0,0.0,71,0.00,,,0.00,Wunderground v.1.15,2013-01-23 22:49:00,
2013-01-23 16:54:00,18.0,10.2,30.18,WNW,291,0.0,0.0,71,0.00,,,0.00,Wunderground v.1.15,2013-01-23 22:54:00,
2013-01-23 16:55:00,17.8,10.0,30.18,WNW,291,0.0,0.0,71,0.00,,,0.00,Wunderground v.1.15,2013-01-23 22:55:00,
2013-01-23 16:56:00,17.7,10.2,30.18,WNW,291,0.0,0.0,72,0.00,,,0.00,Wunderground v.1.15,2013-01-23 22:56:00,
2013-01-23 16:59:00,17.4,10.2,30.18,WNW,291,0.0,0.0,73,0.00,,,0.00,Wunderground v.1.15,2013-01-23 22:59:00,
2013-01-23 17:01:00,17.3,10.1,30.18,WNW,291,0.0,0.0,73,0.00,,,0.00,Wunderground v.1.15,2013-01-23 23:01:00,
2013-01-23 17:02:00,17.1,10.2,30.18,WNW,291,0.0,0.0,74,0.00,,,0.00,Wunderground v.1.15,2013-01-23 23:02:00,
2013-01-23 17:04:00,16.9,9.7,30.18,WNW,291,0.0,0.0,73,0.00,,,0.00,Wunderground v.1.15,2013-01-23 23:04:00,
2013-01-23 17:07:00,16.5,9.0,30.18,WNW,291,0.0,0.0,72,0.00,,,0.00,Wunderground v.1.15,2013-01-23 23:07:00,
2013-01-23 17:11:00,15.9,8.8,30.18,WNW,291,0.0,0.0,73,0.00,,,0.00,Wunderground v.1.15,2013-01-23 23:11:00,
2013-01-23 17:12:00,15.8,8.7,30.18,WNW,291,0.0,0.0,73,0.00,,,0.00,Wunderground v.1.15,2013-01-23 23:12:00,
2013-01-23 17:13:00,15.6,8.5,30.18,WNW,291,0.0,0.0,73,0.00,,,0.00,Wunderground v.1.15,2013-01-23 23:13:00,
2013-01-23 17:14:00,15.5,8.7,30.18,WNW,291,0.0,0.0,74,0.00,,,0.00,Wunderground v.1.15,2013-01-23 23:14:00,
2013-01-23 17:16:00,15.3,8.8,30.18,WNW,291,0.0,0.0,75,0.00,,,0.00,Wunderground v.1.15,2013-01-23 23:16:00,
2013-01-23 17:19:00,15.2,9.0,30.18,WNW,291,0.0,0.0,76,0.00,,,0.00,Wunderground v.1.15,2013-01-23 23:19:00,
2013-01-23 17:20:00,15.1,9.2,30.18,WNW,291,0.0,0.0,77,0.00,,,0.00,Wunderground v.1.15,2013-01-23 23:20:00,
2013-01-23 17:21:00,15.1,9.2,30.18,WNW,291,0.0,0.0,77,0.00,,,0.00,Wunderground v.1.15,2013-01-23 23:21:00,
2013-01-23 17:23:00,15.1,9.5,30.19,WNW,291,0.0,0.0,78,0.00,,,0.00,Wunderground v.1.15,2013-01-23 23:23:00,
2013-01-23 17:25:00,15.2,9.9,30.19,WNW,291,0.0,0.0,79,0.00,,,0.00,Wunderground v.1.15,2013-01-23 23:25:00,
2013-01-23 17:27:00,15.2,9.9,30.18,WNW,291,0.0,0.0,79,0.00,,,0.00,Wunderground v.1.15,2013-01-23 23:27:00,
2013-01-23 17:29:00,15.2,9.9,30.18,WNW,291,0.0,0.0,79,0.00,,,0.00,Wunderground v.1.15,2013-01-23 23:29:00,
2013-01-23 17:31:00,15.3,10.0,30.19,WNW,291,0.0,0.0,79,0.00,,,0.00,Wunderground v.1.15,2013-01-23 23:31:00,
2013-01-23 17:32:00,15.3,10.0,30.19,WNW,291,0.0,0.0,79,0.00,,,0.00,Wunderground v.1.15,2013-01-23 23:32:00,
2013-01-23 17:33:00,15.3,10.0,30.19,WNW,291,0.0,0.0,79,0.00,,,0.00,Wunderground v.1.15,2013-01-23 23:33:00,
2013-01-23 17:37:00,15.4,10.1,30.19,WNW,291,0.0,0.0,79,0.00,,,0.00,Wunderground v.1.15,2013-01-23 23:37:00,
2013-01-23 17:38:00,15.4,10.3,30.19,WNW,291,0.0,0.0,80,0.00,,,0.00,Wunderground v.1.15,2013-01-23 23:38:00,
2013-01-23 17:41:00,15.5,10.4,30.19,WNW,291,0.0,0.0,80,0.00,,,0.00,Wunderground v.1.15,2013-01-23 23:41:00,
2013-01-23 17:44:00,15.7,10.6,30.19,WNW,291,0.0,0.0,80,0.00,,,0.00,Wunderground v.1.15,2013-01-23 23:44:00,
2013-01-23 17:46:00,15.7,10.6,30.19,WNW,291,0.0,0.0,80,0.00,,,0.00,Wunderground v.1.15,2013-01-23 23:46:00,
2013-01-23 17:47:00,15.8,10.7,30.19,WNW,291,0.0,0.0,80,0.00,,,0.00,Wunderground v.1.15,2013-01-23 23:47:00,
2013-01-23 17:50:00,15.7,10.6,30.19,WNW,291,0.0,0.0,80,0.00,,,0.00,Wunderground v.1.15,2013-01-23 23:50:00,
2013-01-23 17:53:00,15.7,10.3,30.19,WNW,291,0.0,0.0,79,0.00,,,0.00,Wunderground v.1.15,2013-01-23 23:53:00,
2013-01-23 17:55:00,15.6,10.2,30.20,WNW,291,0.0,0.0,79,0.00,,,0.00,Wunderground v.1.15,2013-01-23 23:55:00,
2013-01-23 17:58:00,15.6,10.5,30.20,WNW,291,0.0,0.0,80,0.00,,,0.00,Wunderground v.1.15,2013-01-23 23:58:00,
2013-01-23 18:01:00,15.5,10.4,30.21,WNW,291,0.0,0.0,80,0.00,,,0.00,Wunderground v.1.15,2013-01-24 00:01:00,
2013-01-23 18:06:00,15.5,10.4,30.21,WNW,291,0.0,0.0,80,0.00,,,0.00,Wunderground v.1.15,2013-01-24 00:06:00,
2013-01-23 18:07:00,15.5,10.4,30.21,WNW,291,0.0,0.0,80,0.00,,,0.00,Wunderground v.1.15,2013-01-24 00:07:00,
2013-01-23 18:08:00,15.5,10.4,30.21,WNW,291,0.0,1.0,80,0.00,,,0.00,Wunderground v.1.15,2013-01-24 00:08:00,
2013-01-23 18:10:00,15.7,10.9,30.21,WNW,292,0.0,0.0,81,0.00,,,0.00,Wunderground v.1.15,2013-01-24 00:10:00,
2013-01-23 18:14:00,16.3,11.8,30.21,WNW,293,1.0,2.0,82,0.00,,,0.00,Wunderground v.1.15,2013-01-24 00:14:00,
2013-01-23 18:17:00,16.8,12.3,30.22,WNW,300,2.0,6.0,82,0.00,,,0.00,Wunderground v.1.15,2013-01-24 00:17:00,
2013-01-23 18:19:00,17.2,12.4,30.22,NW,311,2.0,6.0,81,0.00,,,0.00,Wunderground v.1.15,2013-01-24 00:19:00,
2013-01-23 18:20:00,17.5,12.7,30.22,NW,311,2.0,2.0,81,0.00,,,0.00,Wunderground v.1.15,2013-01-24 00:20:00,
2013-01-23 18:21:00,17.5,12.7,30.22,NW,311,2.0,3.0,81,0.00,,,0.00,Wunderground v.1.15,2013-01-24 00:21:00,
2013-01-23 18:24:00,18.0,12.9,30.23,NW,311,2.0,3.0,80,0.00,,,0.00,Wunderground v.1.15,2013-01-24 00:24:00,
2013-01-23 18:27:00,18.3,12.9,30.23,NW,311,2.0,3.0,79,0.00,,,0.00,Wunderground v.1.15,2013-01-24 00:27:00,
2013-01-23 18:28:00,18.3,12.6,30.23,NW,311,2.0,3.0,78,0.00,,,0.00,Wunderground v.1.15,2013-01-24 00:28:00,
2013-01-23 18:30:00,18.4,12.7,30.23,NW,318,2.0,3.0,78,0.00,,,0.00,Wunderground v.1.15,2013-01-24 00:30:00,
2013-01-23 18:33:00,18.6,12.9,30.23,NNW,332,3.0,12.0,78,0.00,,,0.00,Wunderground v.1.15,2013-01-24 00:33:00,
2013-01-23 18:34:00,18.6,13.2,30.23,NW,317,3.0,17.0,79,0.00,,,0.00,Wunderground v.1.15,2013-01-24 00:34:00,
2013-01-23 18:37:00,19.0,13.0,30.23,NW,325,7.0,24.0,77,0.00,,,0.00,Wunderground v.1.15,2013-01-24 00:37:00,
2013-01-23 18:41:00,19.2,12.6,30.24,NNW,328,9.0,9.0,75,0.00,,,0.00,Wunderground v.1.15,2013-01-24 00:41:00,
2013-01-23 18:42:00,19.2,12.3,30.24,NW,308,10.0,17.0,74,0.00,,,0.00,Wunderground v.1.15,2013-01-24 00:42:00,
2013-01-23 18:44:00,19.1,11.9,30.24,NNW,329,10.0,17.0,73,0.00,,,0.00,Wunderground v.1.15,2013-01-24 00:44:00,
2013-01-23 18:46:00,18.9,11.4,30.24,NW,316,9.0,17.0,72,0.00,,,0.00,Wunderground v.1.15,2013-01-24 00:46:00,
2013-01-23 18:48:00,18.7,11.2,30.24,NW,325,9.0,17.0,72,0.00,,,0.00,Wunderground v.1.15,2013-01-24 00:48:00,
2013-01-23 18:49:00,18.6,10.8,30.24,NNW,338,9.0,17.0,71,0.00,,,0.00,Wunderground v.1.15,2013-01-24 00:49:00,
2013-01-23 18:51:00,18.4,10.6,30.24,NNW,329,9.0,9.0,71,0.00,,,0.00,Wunderground v.1.15,2013-01-24 00:51:00,
2013-01-23 18:53:00,18.1,10.3,30.24,NNW,336,8.0,9.0,71,0.00,,,0.00,Wunderground v.1.15,2013-01-24 00:53:00,
2013-01-23 18:57:00,17.7,9.9,30.25,NNW,327,8.0,9.0,71,0.00,,,0.00,Wunderground v.1.15,2013-01-24 00:57:00,
2013-01-23 18:59:00,17.5,10.0,30.25,NW,317,7.0,11.0,72,0.00,,,0.00,Wunderground v.1.15,2013-01-24 00:59:00,
2013-01-23 19:01:00,17.4,9.9,30.25,NW,321,7.0,7.0,72,0.00,,,0.00,Wunderground v.1.15,2013-01-24 01:01:00,
2013-01-23 19:02:00,17.2,9.7,30.25,NNW,340,7.0,9.0,72,0.00,,,0.00,Wunderground v.1.15,2013-01-24 01:02:00,
2013-01-23 19:06:00,17.0,9.8,30.25,NNW,331,6.0,9.0,73,0.00,,,0.00,Wunderground v.1.15,2013-01-24 01:06:00,
2013-01-23 19:07:00,17.0,9.8,30.25,NW,319,6.0,9.0,73,0.00,,,0.00,Wunderground v.1.15,2013-01-24 01:07:00,
2013-01-23 19:08:00,17.0,9.5,30.25,NW,317,5.0,9.0,72,0.00,,,0.00,Wunderground v.1.15,2013-01-24 01:08:00,
2013-01-23 19:10:00,16.8,9.6,30.26,NNW,332,5.0,5.0,73,0.00,,,0.00,Wunderground v.1.15,2013-01-24 01:10:00,
2013-01-23 19:13:00,16.7,9.5,30.26,NNW,338,5.0,5.0,73,0.00,,,0.00,Wunderground v.1.15,2013-01-24 01:13:00,
2013-01-23 19:14:00,16.6,9.4,30.26,WNW,301,5.0,5.0,73,0.00,,,0.00,Wunderground v.1.15,2013-01-24 01:14:00,
2013-01-23 19:17:00,16.5,9.4,30.27,West,275,4.0,5.0,73,0.00,,,0.00,Wunderground v.1.15,2013-01-24 01:17:00,
2013-01-23 19:19:00,16.4,9.3,30.27,NW,314,4.0,5.0,73,0.00,,,0.00,Wunderground v.1.15,2013-01-24 01:19:00,
2013-01-23 19:21:00,16.4,9.3,30.27,NW,319,4.0,4.0,73,0.00,,,0.00,Wunderground v.1.15,2013-01-24 01:21:00,
2013-01-23 19:23:00,16.3,9.2,30.27,NW,311,4.0,4.0,73,0.00,,,0.00,Wunderground v.1.15,2013-01-24 01:23:00,
2013-01-23 19:24:00,16.2,9.1,30.27,NW,313,4.0,4.0,73,0.00,,,0.00,Wunderground v.1.15,2013-01-24 01:24:00,
2013-01-23 19:26:00,16.1,9.0,30.27,WNW,302,3.0,4.0,73,0.00,,,0.00,Wunderground v.1.15,2013-01-24 01:26:00,
2013-01-23 19:27:00,16.1,9.0,30.27,NNW,336,4.0,4.0,73,0.00,,,0.00,Wunderground v.1.15,2013-01-24 01:27:00,
2013-01-23 19:28:00,16.1,9.0,30.27,NNW,336,3.0,4.0,73,0.00,,,0.00,Wunderground v.1.15,2013-01-24 01:28:00,
2013-01-23 19:32:00,15.9,8.8,30.27,NW,323,3.0,3.0,73,0.00,,,0.00,Wunderground v.1.15,2013-01-24 01:32:00,
2013-01-23 19:33:00,15.9,8.8,30.27,NW,323,3.0,3.0,73,0.00,,,0.00,Wunderground v.1.15,2013-01-24 01:33:00,
2013-01-23 19:35:00,15.8,8.7,30.27,NW,323,3.0,4.0,73,0.00,,,0.00,Wunderground v.1.15,2013-01-24 01:35:00,
2013-01-23 19:38:00,15.7,8.6,30.27,NW,313,3.0,6.0,73,0.00,,,0.00,Wunderground v.1.15,2013-01-24 01:38:00,
2013-01-23 19:41:00,15.7,8.6,30.27,NW,321,3.0,3.0,73,0.00,,,0.00,Wunderground v.1.15,2013-01-24 01:41:00,
2013-01-23 19:43:00,15.7,8.9,30.27,NW,321,3.0,3.0,74,0.00,,,0.00,Wunderground v.1.15,2013-01-24 01:43:00,
2013-01-23 19:45:00,15.5,8.7,30.27,NNW,345,3.0,3.0,74,0.00,,,0.00,Wunderground v.1.15,2013-01-24 01:45:00,
2013-01-23 19:46:00,15.5,8.7,30.27,NNW,346,3.0,3.0,74,0.00,,,0.00,Wunderground v.1.15,2013-01-24 01:46:00,
2013-01-23 19:48:00,15.5,8.7,30.27,NW,320,3.0,3.0,74,0.00,,,0.00,Wunderground v.1.15,2013-01-24 01:48:00,
2013-01-23 19:50:00,15.4,8.6,30.27,NW,317,2.0,3.0,74,0.00,,,0.00,Wunderground v.1.15,2013-01-24 01:50:00,
2013-01-23 19:51:00,15.4,8.6,30.27,NW,317,2.0,4.0,74,0.00,,,0.00,Wunderground v.1.15,2013-01-24 01:51:00,
2013-01-23 19:53:00,15.3,8.5,30.27,NNW,331,3.0,5.0,74,0.00,,,0.00,Wunderground v.1.15,2013-01-24 01:53:00,
2013-01-23 19:55:00,15.3,8.5,30.27,NNW,333,3.0,5.0,74,0.00,,,0.00,Wunderground v.1.15,2013-01-24 01:55:00,
2013-01-23 19:59:00,15.2,8.4,30.27,NW,326,3.0,5.0,74,0.00,,,0.00,Wunderground v.1.15,2013-01-24 01:59:00,
2013-01-23 20:00:00,15.2,8.4,30.27,NW,310,3.0,3.0,74,0.00,,,0.00,Wunderground v.1.15,2013-01-24 02:00:00,
2013-01-23 20:02:00,15.2,8.4,30.28,NW,310,3.0,3.0,74,0.00,,,0.00,Wunderground v.1.15,2013-01-24 02:02:00,
2013-01-23 20:05:00,15.2,8.7,30.28,WNW,298,3.0,5.0,75,0.00,,,0.00,Wunderground v.1.15,2013-01-24 02:05:00,
2013-01-23 20:07:00,15.2,8.7,30.29,NW,318,3.0,5.0,75,0.00,,,0.00,Wunderground v.1.15,2013-01-24 02:07:00,
2013-01-23 20:08:00,15.2,8.7,30.29,NNW,331,3.0,5.0,75,0.00,,,0.00,Wunderground v.1.15,2013-01-24 02:08:00,
2013-01-23 20:10:00,15.3,8.8,30.29,NW,315,3.0,4.0,75,0.00,,,0.00,Wunderground v.1.15,2013-01-24 02:10:00,
2013-01-23 20:12:00,15.3,8.8,30.29,NNW,334,3.0,6.0,75,0.00,,,0.00,Wunderground v.1.15,2013-01-24 02:12:00,
2013-01-23 20:15:00,15.4,8.9,30.29,NW,313,3.0,6.0,75,0.00,,,0.00,Wunderground v.1.15,2013-01-24 02:15:00,
2013-01-23 20:17:00,15.4,8.9,30.29,NW,308,4.0,6.0,75,0.00,,,0.00,Wunderground v.1.15,2013-01-24 02:17:00,
2013-01-23 20:18:00,15.4,8.9,30.29,NW,318,4.0,6.0,75,0.00,,,0.00,Wunderground v.1.15,2013-01-24 02:18:00,
2013-01-23 20:21:00,15.4,8.9,30.29,NNW,332,4.0,4.0,75,0.00,,,0.00,Wunderground v.1.15,2013-01-24 02:21:00,
2013-01-23 20:22:00,15.4,8.9,30.29,NW,321,4.0,4.0,75,0.00,,,0.00,Wunderground v.1.15,2013-01-24 02:22:00,
2013-01-23 20:27:00,15.3,8.8,30.29,NW,325,4.0,6.0,75,0.00,,,0.00,Wunderground v.1.15,2013-01-24 02:27:00,
2013-01-23 20:28:00,15.2,8.7,30.30,NNW,329,4.0,6.0,75,0.00,,,0.00,Wunderground v.1.15,2013-01-24 02:28:00,
2013-01-23 20:32:00,15.0,8.8,30.30,NNW,327,4.0,4.0,76,0.00,,,0.00,Wunderground v.1.15,2013-01-24 02:32:00,
2013-01-23 20:33:00,15.0,8.8,30.30,NW,317,4.0,10.0,76,0.00,,,0.00,Wunderground v.1.15,2013-01-24 02:33:00,
2013-01-23 20:34:00,15.0,8.8,30.30,NW,313,4.0,10.0,76,0.00,,,0.00,Wunderground v.1.15,2013-01-24 02:34:00,
2013-01-23 20:39:00,15.2,9.6,30.31,NNW,344,4.0,10.0,78,0.00,,,0.00,Wunderground v.1.15,2013-01-24 02:39:00,
2013-01-23 20:40:00,15.3,10.0,30.31,NNW,327,4.0,10.0,79,0.00,,,0.00,Wunderground v.1.15,2013-01-24 02:40:00,
2013-01-23 20:41:00,15.3,10.0,30.31,NW,326,4.0,4.0,79,0.00,,,0.00,Wunderground v.1.15,2013-01-24 02:41:00,
2013-01-23 20:44:00,15.4,10.3,30.31,NW,317,4.0,4.0,80,0.00,,,0.00,Wunderground v.1.15,2013-01-24 02:44:00,
2013-01-23 20:47:00,15.4,10.6,30.31,NNW,334,5.0,7.0,81,0.00,,,0.00,Wunderground v.1.15,2013-01-24 02:47:00,
2013-01-23 20:48:00,15.5,10.7,30.31,NNW,334,5.0,7.0,81,0.00,,,0.00,Wunderground v.1.15,2013-01-24 02:48:00,
2013-01-23 20:49:00,15.5,10.7,30.31,NNW,329,5.0,7.0,81,0.00,,,0.00,Wunderground v.1.15,2013-01-24 02:49:00,
2013-01-23 20:51:00,15.5,11.0,30.31,NNW,331,5.0,5.0,82,0.00,,,0.00,Wunderground v.1.15,2013-01-24 02:51:00,
2013-01-23 20:52:00,15.4,10.9,30.31,NNW,341,5.0,5.0,82,0.00,,,0.00,Wunderground v.1.15,2013-01-24 02:52:00,
2013-01-23 20:54:00,15.5,11.3,30.32,NW,313,5.0,5.0,83,0.00,,,0.00,Wunderground v.1.15,2013-01-24 02:54:00,
2013-01-23 20:55:00,15.5,11.3,30.32,NW,325,5.0,7.0,83,0.00,,,0.00,Wunderground v.1.15,2013-01-24 02:55:00,
2013-01-23 20:59:00,15.4,11.2,30.32,NNW,338,6.0,7.0,83,0.00,,,0.00,Wunderground v.1.15,2013-01-24 02:59:00,
2013-01-23 21:02:00,15.3,11.1,30.32,NW,325,6.0,11.0,83,0.00,,,0.00,Wunderground v.1.15,2013-01-24 03:02:00,
2013-01-23 21:08:00,15.3,10.5,30.32,NNW,336,6.0,14.0,81,0.00,,,0.00,Wunderground v.1.15,2013-01-24 03:08:00,
2013-01-23 21:09:00,15.3,10.5,30.32,NW,322,6.0,14.0,81,0.00,,,0.00,Wunderground v.1.15,2013-01-24 03:09:00,
2013-01-23 21:10:00,15.3,10.2,30.32,NNW,346,7.0,14.0,80,0.00,,,0.00,Wunderground v.1.15,2013-01-24 03:10:00,
2013-01-23 21:11:00,15.3,10.2,30.32,NNW,339,7.0,7.0,80,0.00,,,0.00,Wunderground v.1.15,2013-01-24 03:11:00,
2013-01-23 21:17:00,15.4,9.2,30.33,NNW,335,8.0,16.0,76,0.00,,,0.00,Wunderground v.1.15,2013-01-24 03:17:00,
2013-01-23 21:18:00,15.4,8.9,30.33,NNW,339,9.0,16.0,75,0.00,,,0.00,Wunderground v.1.15,2013-01-24 03:18:00,
2013-01-23 21:19:00,15.4,8.9,30.33,NW,325,9.0,16.0,75,0.00,,,0.00,Wunderground v.1.15,2013-01-24 03:19:00,
2013-01-23 21:23:00,15.4,8.6,30.33,NNW,346,10.0,14.0,74,0.00,,,0.00,Wunderground v.1.15,2013-01-24 03:23:00,
2013-01-23 21:26:00,15.3,8.5,30.33,NNW,344,10.0,17.0,74,0.00,,,0.00,Wunderground v.1.15,2013-01-24 03:26:00,
2013-01-23 21:27:00,15.3,8.5,30.34,NNW,334,10.0,17.0,74,0.00,,,0.00,Wunderground v.1.15,2013-01-24 03:27:00,
2013-01-23 21:28:00,15.3,8.5,30.34,NNW,335,10.0,18.0,74,0.00,,,0.00,Wunderground v.1.15,2013-01-24 03:28:00,
2013-01-23 21:29:00,15.2,8.4,30.34,North,360,11.0,18.0,74,0.00,,,0.00,Wunderground v.1.15,2013-01-24 03:29:00,
2013-01-23 21:32:00,14.9,8.4,30.35,North,5,12.0,12.0,75,0.00,,,0.00,Wunderground v.1.15,2013-01-24 03:32:00,
2013-01-23 21:33:00,14.8,8.3,30.35,North,350,12.0,12.0,75,0.00,,,0.00,Wunderground v.1.15,2013-01-24 03:33:00,
2013-01-23 21:35:00,14.6,7.8,30.35,NNW,330,14.0,14.0,74,0.00,,,0.00,Wunderground v.1.15,2013-01-24 03:35:00,
2013-01-23 21:36:00,14.5,7.7,30.35,North,5,14.0,14.0,74,0.00,,,0.00,Wunderground v.1.15,2013-01-24 03:36:00,
2013-01-23 21:38:00,14.4,7.6,30.35,North,10,13.0,14.0,74,0.00,,,0.00,Wunderground v.1.15,2013-01-24 03:38:00,
2013-01-23 21:39:00,14.3,7.5,30.35,NNW,331,12.0,14.0,74,0.00,,,0.00,Wunderground v.1.15,2013-01-24 03:39:00,
2013-01-23 21:42:00,14.0,7.5,30.35,North,5,13.0,17.0,75,0.00,,,0.00,Wunderground v.1.15,2013-01-24 03:42:00,
2013-01-23 21:43:00,13.9,7.7,30.36,NNE,14,13.0,17.0,76,0.00,,,0.00,Wunderground v.1.15,2013-01-24 03:43:00,
2013-01-23 21:46:00,13.6,8.0,30.36,North,350,12.0,17.0,78,0.00,,,0.00,Wunderground v.1.15,2013-01-24 03:46:00,
2013-01-23 21:48:00,13.5,7.6,30.36,North,360,12.0,17.0,77,0.00,,,0.00,Wunderground v.1.15,2013-01-24 03:48:00,
2013-01-23 21:51:00,13.3,7.4,30.36,NNW,328,11.0,12.0,77,0.00,,,0.00,Wunderground v.1.15,2013-01-24 03:51:00,
2013-01-23 21:54:00,13.2,6.5,30.36,North,355,11.0,14.0,74,0.00,,,0.00,Wunderground v.1.15,2013-01-24 03:54:00,
2013-01-23 21:55:00,13.1,6.4,30.36,NNW,340,11.0,15.0,74,0.00,,,0.00,Wunderground v.1.15,2013-01-24 03:55:00,
2013-01-23 21:58:00,13.0,6.0,30.36,NNW,342,10.0,15.0,73,0.00,,,0.00,Wunderground v.1.15,2013-01-24 03:58:00,
2013-01-23 21:59:00,12.9,5.6,30.36,North,9,10.0,15.0,72,0.00,,,0.00,Wunderground v.1.15,2013-01-24 03:59:00,
2013-01-23 22:01:00,12.8,5.5,30.36,NNW,346,10.0,10.0,72,0.00,,,0.00,Wunderground v.1.15,2013-01-24 04:01:00,
2013-01-23 22:03:00,12.6,5.0,30.36,NW,326,9.0,14.0,71,0.00,,,0.00,Wunderground v.1.15,2013-01-24 04:03:00,
2013-01-23 22:04:00,12.6,5.0,30.37,North,360,9.0,14.0,71,0.00,,,0.00,Wunderground v.1.15,2013-01-24 04:04:00,
2013-01-23 22:06:00,12.5,4.6,30.37,NNW,340,10.0,15.0,70,0.00,,,0.00,Wunderground v.1.15,2013-01-24 04:06:00,
2013-01-23 22:07:00,12.4,4.5,30.37,NNW,347,10.0,15.0,70,0.00,,,0.00,Wunderground v.1.15,2013-01-24 04:07:00,
2013-01-23 22:11:00,12.2,3.6,30.38,NNW,333,12.0,12.0,68,0.00,,,0.00,Wunderground v.1.15,2013-01-24 04:11:00,
2013-01-23 22:12:00,12.2,3.6,30.38,NNW,334,12.0,12.0,68,0.00,,,0.00,Wunderground v.1.15,2013-01-24 04:12:00,
2013-01-23 22:14:00,12.1,3.6,30.38,NNE,17,12.0,12.0,68,0.00,,,0.00,Wunderground v.1.15,2013-01-24 04:14:00,
2013-01-23 22:16:00,12.0,3.5,30.38,NNW,347,12.0,12.0,68,0.00,,,0.00,Wunderground v.1.15,2013-01-24 04:16:00,
2013-01-23 22:21:00,11.8,3.6,30.39,NNW,342,11.0,12.0,69,0.00,,,0.00,Wunderground v.1.15,2013-01-24 04:21:00,
2013-01-23 22:22:00,11.8,3.6,30.39,NNW,344,10.0,12.0,69,0.00,,,0.00,Wunderground v.1.15,2013-01-24 04:22:00,
2013-01-23 22:26:00,11.5,3.3,30.39,North,360,10.0,12.0,69,0.00,,,0.00,Wunderground v.1.15,2013-01-24 04:26:00,
2013-01-23 22:27:00,11.5,3.3,30.40,NNW,342,9.0,12.0,69,0.00,,,0.00,Wunderground v.1.15,2013-01-24 04:27:00,
2013-01-23 22:28:00,11.4,3.2,30.39,North,5,9.0,12.0,69,0.00,,,0.00,Wunderground v.1.15,2013-01-24 04:28:00,
2013-01-23 22:32:00,11.2,3.3,30.40,NNE,15,9.0,11.0,70,0.00,,,0.00,Wunderground v.1.15,2013-01-24 04:32:00,
2013-01-23 22:33:00,11.2,3.3,30.40,North,9,9.0,11.0,70,0.00,,,0.00,Wunderground v.1.15,2013-01-24 04:33:00,
2013-01-23 22:34:00,11.2,3.6,30.40,NNW,348,9.0,11.0,71,0.00,,,0.00,Wunderground v.1.15,2013-01-24 04:34:00,
2013-01-23 22:37:00,11.0,3.4,30.40,NE,50,10.0,15.0,71,0.00,,,0.00,Wunderground v.1.15,2013-01-24 04:37:00,
2013-01-23 22:40:00,11.0,4.0,30.40,NNE,21,10.0,15.0,73,0.00,,,0.00,Wunderground v.1.15,2013-01-24 04:40:00,
2013-01-23 22:41:00,11.0,4.0,30.41,NNW,340,10.0,10.0,73,0.00,,,0.00,Wunderground v.1.15,2013-01-24 04:41:00,
2013-01-23 22:45:00,10.8,4.1,30.41,North,355,10.0,14.0,74,0.00,,,0.00,Wunderground v.1.15,2013-01-24 04:45:00,
2013-01-23 22:46:00,10.8,4.1,30.41,North,355,10.0,14.0,74,0.00,,,0.00,Wunderground v.1.15,2013-01-24 04:46:00,
2013-01-23 22:47:00,10.8,3.8,30.41,NNW,334,10.0,14.0,73,0.00,,,0.00,Wunderground v.1.15,2013-01-24 04:47:00,
2013-01-23 22:51:00,10.7,3.7,30.41,NNE,13,11.0,11.0,73,0.00,,,0.00,Wunderground v.1.15,2013-01-24 04:51:00,
2013-01-23 22:52:00,10.6,3.6,30.41,NNW,338,11.0,11.0,73,0.00,,,0.00,Wunderground v.1.15,2013-01-24 04:52:00,
2013-01-23 22:54:00,10.5,3.6,30.41,NNE,14,11.0,15.0,73,0.00,,,0.00,Wunderground v.1.15,2013-01-24 04:54:00,
2013-01-23 22:55:00,10.5,3.6,30.41,North,349,11.0,15.0,73,0.00,,,0.00,Wunderground v.1.15,2013-01-24 04:55:00,
2013-01-23 22:56:00,10.5,3.8,30.42,North,355,11.0,15.0,74,0.00,,,0.00,Wunderground v.1.15,2013-01-24 04:56:00,
2013-01-23 23:00:00,10.4,3.8,30.42,North,5,10.0,13.0,74,0.00,,,0.00,Wunderground v.1.15,2013-01-24 05:00:00,
2013-01-23 23:01:00,10.4,3.8,30.42,NNW,339,10.0,14.0,74,0.00,,,0.00,Wunderground v.1.15,2013-01-24 05:01:00,
2013-01-23 23:03:00,10.3,3.7,30.42,NNW,347,11.0,14.0,74,0.00,,,0.00,Wunderground v.1.15,2013-01-24 05:03:00,
2013-01-23 23:06:00,10.2,3.3,30.42,NNW,342,10.0,14.0,73,0.00,,,0.00,Wunderground v.1.15,2013-01-24 05:06:00,
2013-01-23 23:08:00,10.1,3.2,30.42,North,355,10.0,14.0,73,0.00,,,0.00,Wunderground v.1.15,2013-01-24 05:08:00,
2013-01-23 23:10:00,9.9,3.0,30.42,NNW,347,9.0,9.0,73,0.00,,,0.00,Wunderground v.1.15,2013-01-24 05:10:00,
2013-01-23 23:12:00,9.9,3.0,30.42,North,350,9.0,9.0,73,0.00,,,0.00,Wunderground v.1.15,2013-01-24 05:12:00,
2013-01-23 23:13:00,9.8,2.9,30.42,NNW,342,9.0,9.0,73,0.00,,,0.00,Wunderground v.1.15,2013-01-24 05:13:00,
2013-01-23 23:16:00,9.7,2.5,30.42,North,9,8.0,12.0,72,0.00,,,0.00,Wunderground v.1.15,2013-01-24 05:16:00,
2013-01-23 23:17:00,9.7,2.2,30.43,NNE,13,9.0,16.0,71,0.00,,,0.00,Wunderground v.1.15,2013-01-24 05:17:00,
2013-01-23 23:18:00,9.6,2.1,30.43,North,360,9.0,16.0,71,0.00,,,0.00,Wunderground v.1.15,2013-01-24 05:18:00,
2013-01-23 23:21:00,9.6,1.5,30.43,NNE,22,9.0,10.0,69,0.00,,,0.00,Wunderground v.1.15,2013-01-24 05:21:00,
2013-01-23 23:22:00,9.5,1.4,30.43,NNW,345,9.0,10.0,69,0.00,,,0.00,Wunderground v.1.15,2013-01-24 05:22:00,
2013-01-23 23:23:00,9.5,1.4,30.43,North,350,9.0,10.0,69,0.00,,,0.00,Wunderground v.1.15,2013-01-24 05:23:00,
2013-01-23 23:24:00,9.5,1.4,30.43,NNW,344,9.0,10.0,69,0.00,,,0.00,Wunderground v.1.15,2013-01-24 05:24:00,
2013-01-23 23:27:00,9.4,1.3,30.43,NNW,346,8.0,10.0,69,0.00,,,0.00,Wunderground v.1.15,2013-01-24 05:27:00,
2013-01-23 23:29:00,9.3,1.2,30.43,NNW,342,8.0,10.0,69,0.00,,,0.00,Wunderground v.1.15,2013-01-24 05:29:00,
2013-01-23 23:30:00,9.2,1.1,30.43,NNW,346,7.0,10.0,69,0.00,,,0.00,Wunderground v.1.15,2013-01-24 05:30:00,
2013-01-23 23:32:00,9.1,1.0,30.43,North,355,7.0,10.0,69,0.00,,,0.00,Wunderground v.1.15,2013-01-24 05:32:00,
2013-01-23 23:33:00,9.1,1.0,30.43,NNW,344,7.0,10.0,69,0.00,,,0.00,Wunderground v.1.15,2013-01-24 05:33:00,
2013-01-23 23:36:00,8.9,1.1,30.44,NNW,329,7.0,10.0,70,0.00,,,0.00,Wunderground v.1.15,2013-01-24 05:36:00,
2013-01-23 23:38:00,8.9,1.1,30.44,NNW,345,7.0,10.0,70,0.00,,,0.00,Wunderground v.1.15,2013-01-24 05:38:00,
2013-01-23 23:39:00,8.8,1.0,30.44,NNW,339,7.0,12.0,70,0.00,,,0.00,Wunderground v.1.15,2013-01-24 05:39:00,
2013-01-23 23:41:00,8.7,1.2,30.44,NNW,333,7.0,10.0,71,0.00,,,0.00,Wunderground v.1.15,2013-01-24 05:41:00,
2013-01-23 23:42:00,8.7,1.2,30.44,NNW,332,7.0,12.0,71,0.00,,,0.00,Wunderground v.1.15,2013-01-24 05:42:00,
2013-01-23 23:45:00,8.6,1.1,30.44,NNW,341,7.0,12.0,71,0.00,,,0.00,Wunderground v.1.15,2013-01-24 05:45:00,
2013-01-23 23:47:00,8.6,1.1,30.44,NNW,348,7.0,12.0,71,0.00,,,0.00,Wunderground v.1.15,2013-01-24 05:47:00,
2013-01-23 23:48:00,8.6,1.1,30.45,North,351,7.0,12.0,71,0.00,,,0.00,Wunderground v.1.15,2013-01-24 05:48:00,
2013-01-23 23:53:00,8.5,1.0,30.46,North,355,7.0,8.0,71,0.00,,,0.00,Wunderground v.1.15,2013-01-24 05:53:00,
2013-01-23 23:54:00,8.5,1.0,30.46,North,355,6.0,8.0,71,0.00,,,0.00,Wunderground v.1.15,2013-01-24 05:54:00,
2013-01-23 23:55:00,8.5,1.0,30.46,NW,321,6.0,8.0,71,0.00,,,0.00,Wunderground v.1.15,2013-01-24 05:55:00,